Wetterdaten: Mittwoch, 02.12.2015
Datum Zeit Temp. Aussen Temp. o. S. +5cm Feuchte Auss BlattFeu 1 Luftdruck Regen Sonnenschein Regendauer Solar Windben Empfang
02.12.2015 00:00 11,2 C 11,7 C 9,4 C 93 % 0 lf 1025,5 hPa 0,0 l/m 0 min 0 min 0 W/m 20,9 km/h (4 Bft) 95,74 %
02.12.2015 00:02 11,2 C 11,1 C 9,4 C 92 % 0 lf 1025,5 hPa 0,0 l/m 0 min 0 min 0 W/m 20,9 km/h (4 Bft) 100,00 %
02.12.2015 00:06 11,2 C 11,1 C 9,4 C 92 % 0 lf 1025,4 hPa 0,0 l/m 0 min 0 min 0 W/m 23,0 km/h (4 Bft) 94,68 %
02.12.2015 00:08 11,2 C 11,1 C 9,4 C 92 % 0 lf 1025,5 hPa 0,0 l/m 0 min 0 min 0 W/m 23,0 km/h (4 Bft) 97,87 %
02.12.2015 00:10 11,1 C 11,1 C 9,4 C 92 % 0 lf 1025,5 hPa 0,0 l/m 0 min 0 min 0 W/m 23,0 km/h (4 Bft) 100,00 %
02.12.2015 00:12 11,1 C 11,1 C 9,4 C 92 % 0 lf 1025,4 hPa 0,0 l/m 0 min 0 min 0 W/m 25,1 km/h (4 Bft) 100,00 %
02.12.2015 00:14 11,1 C 11,1 C 9,4 C 92 % 0 lf 1025,5 hPa 0,0 l/m 0 min 0 min 0 W/m 25,1 km/h (4 Bft) 97,83 %
02.12.2015 00:16 11,1 C 11,1 C 9,4 C 92 % 0 lf 1025,5 hPa 0,0 l/m 0 min 0 min 0 W/m 23,0 km/h (4 Bft) 100,00 %
02.12.2015 00:18 11,1 C 11,1 C 9,4 C 92 % 0 lf 1025,4 hPa 0,0 l/m 0 min 0 min 0 W/m 20,9 km/h (4 Bft) 97,87 %
02.12.2015 00:20 11,1 C 11,1 C 9,4 C 92 % 0 lf 1025,4 hPa 0,0 l/m 0 min 0 min 0 W/m 29,3 km/h (5 Bft) 97,87 %
02.12.2015 00:22 11,1 C 11,1 C 9,4 C 91 % 0 lf 1025,4 hPa 0,0 l/m 0 min 0 min 0 W/m 20,9 km/h (4 Bft) 93,62 %
02.12.2015 00:24 11,1 C 11,1 C 9,4 C 91 % 0 lf 1025,5 hPa 0,0 l/m 0 min 0 min 0 W/m 29,3 km/h (5 Bft) 95,74 %
02.12.2015 00:26 11,1 C 11,1 C 9,4 C 91 % 0 lf 1025,5 hPa 0,0 l/m 0 min 0 min 0 W/m 23,0 km/h (4 Bft) 93,48 %
02.12.2015 00:28 11,1 C 11,1 C 9,4 C 91 % 0 lf 1025,5 hPa 0,0 l/m 0 min 0 min 0 W/m 25,1 km/h (4 Bft) 93,62 %
02.12.2015 00:30 11,1 C 11,7 C 9,4 C 91 % 0 lf 1025,4 hPa 0,0 l/m 0 min 0 min 0 W/m 25,1 km/h (4 Bft) 95,74 %
02.12.2015 00:33 11,1 C 11,7 C 9,4 C 91 % 0 lf 1025,5 hPa 0,0 l/m 0 min 0 min 0 W/m 25,1 km/h (4 Bft) 94,29 %
02.12.2015 00:34 11,1 C 11,7 C 9,4 C 91 % 0 lf 1025,5 hPa 0,0 l/m 0 min 0 min 0 W/m 18,8 km/h (3 Bft) 100,00 %
02.12.2015 00:36 11,1 C 11,1 C 9,4 C 91 % 0 lf 1025,5 hPa 0,0 l/m 0 min 0 min 0 W/m 23,0 km/h (4 Bft) 93,62 %
02.12.2015 00:38 11,1 C 11,7 C 9,4 C 91 % 0 lf 1025,5 hPa 0,0 l/m 0 min 0 min 0 W/m 25,1 km/h (4 Bft) 93,48 %
02.12.2015 00:40 11,1 C 11,7 C 9,4 C 91 % 0 lf 1025,6 hPa 0,0 l/m 0 min 0 min 0 W/m 20,9 km/h (4 Bft) 93,62 %
02.12.2015 00:42 11,1 C 11,1 C 9,4 C 91 % 0 lf 1025,6 hPa 0,0 l/m 0 min 0 min 0 W/m 25,1 km/h (4 Bft) 93,62 %
02.12.2015 00:44 11,1 C 11,1 C 9,4 C 91 % 0 lf 1025,7 hPa 0,0 l/m 0 min 0 min 0 W/m 29,3 km/h (5 Bft) 93,62 %
02.12.2015 00:46 11,1 C 11,7 C 9,4 C 90 % 0 lf 1025,6 hPa 0,0 l/m 0 min 0 min 0 W/m 27,2 km/h (4 Bft) 91,49 %
02.12.2015 00:48 11,1 C 11,7 C 9,4 C 90 % 0 lf 1025,6 hPa 0,0 l/m 0 min 0 min 0 W/m 25,1 km/h (4 Bft) 95,65 %
02.12.2015 00:50 11,1 C 11,7 C 9,4 C 90 % 0 lf 1025,6 hPa 0,0 l/m 0 min 0 min 0 W/m 31,4 km/h (5 Bft) 93,62 %
02.12.2015 00:52 11,1 C 11,7 C 9,4 C 90 % 0 lf 1025,7 hPa 0,0 l/m 0 min 0 min 0 W/m 25,1 km/h (4 Bft) 89,36 %
02.12.2015 00:54 11,1 C 11,7 C 9,4 C 90 % 0 lf 1025,7 hPa 0,0 l/m 0 min 0 min 0 W/m 31,4 km/h (5 Bft) 91,49 %
02.12.2015 00:56 11,1 C 11,7 C 9,4 C 90 % 0 lf 1025,7 hPa 0,0 l/m 0 min 0 min 0 W/m 31,4 km/h (5 Bft) 91,49 %
02.12.2015 00:58 11,2 C 11,7 C 9,4 C 90 % 0 lf 1025,7 hPa 0,0 l/m 0 min 0 min 0 W/m 20,9 km/h (4 Bft) 95,74 %
02.12.2015 01:00 11,2 C 11,7 C 9,4 C 90 % 0 lf 1025,7 hPa 0,0 l/m 0 min 0 min 0 W/m 33,5 km/h (5 Bft) 91,30 %
02.12.2015 01:02 11,2 C 11,7 C 9,4 C 90 % 0 lf 1025,9 hPa 0,0 l/m 0 min 0 min 0 W/m 31,4 km/h (5 Bft) 93,62 %
02.12.2015 01:04 11,2 C 11,7 C 9,4 C 90 % 0 lf 1025,9 hPa 0,0 l/m 0 min 0 min 0 W/m 31,4 km/h (5 Bft) 91,49 %
02.12.2015 01:06 11,2 C 11,1 C 9,4 C 89 % 0 lf 1025,9 hPa 0,0 l/m 0 min 0 min 0 W/m 27,2 km/h (4 Bft) 93,62 %
02.12.2015 01:08 11,2 C 11,1 C 9,4 C 89 % 0 lf 1026,0 hPa 0,0 l/m 0 min 0 min 0 W/m 31,4 km/h (5 Bft) 91,49 %
02.12.2015 01:10 11,2 C 11,1 C 9,4 C 89 % 0 lf 1025,8 hPa 0,0 l/m 0 min 0 min 0 W/m 29,3 km/h (5 Bft) 93,62 %
02.12.2015 01:12 11,1 C 11,1 C 9,4 C 89 % 0 lf 1025,9 hPa 0,0 l/m 0 min 0 min 0 W/m 23,0 km/h (4 Bft) 97,83 %
02.12.2015 01:14 11,2 C 11,1 C 9,4 C 89 % 0 lf 1025,9 hPa 0,0 l/m 0 min 0 min 0 W/m 35,6 km/h (5 Bft) 93,62 %
02.12.2015 01:16 11,1 C 11,1 C 9,4 C 89 % 0 lf 1025,8 hPa 0,0 l/m 0 min 0 min 0 W/m 27,2 km/h (4 Bft) 97,87 %
02.12.2015 01:18 11,1 C 11,7 C 9,4 C 89 % 0 lf 1025,8 hPa 0,0 l/m 0 min 0 min 0 W/m 27,2 km/h (4 Bft) 95,74 %
02.12.2015 01:20 11,2 C 11,1 C 9,4 C 89 % 0 lf 1025,8 hPa 0,0 l/m 0 min 0 min 0 W/m 27,2 km/h (4 Bft) 97,87 %
02.12.2015 01:22 11,2 C 11,1 C 9,4 C 89 % 0 lf 1025,8 hPa 0,0 l/m 0 min 0 min 0 W/m 25,1 km/h (4 Bft) 95,74 %
02.12.2015 01:24 11,1 C 11,1 C 9,4 C 89 % 0 lf 1025,8 hPa 0,0 l/m 0 min 0 min 0 W/m 29,3 km/h (5 Bft) 100,00 %
02.12.2015 01:26 11,1 C 11,1 C 9,4 C 89 % 0 lf 1025,9 hPa 0,0 l/m 0 min 0 min 0 W/m 23,0 km/h (4 Bft) 97,87 %
02.12.2015 01:28 11,1 C 11,7 C 9,4 C 89 % 0 lf 1025,9 hPa 0,0 l/m 0 min 0 min 0 W/m 23,0 km/h (4 Bft) 100,00 %
02.12.2015 01:30 11,1 C 11,7 C 9,4 C 89 % 0 lf 1026,0 hPa 0,0 l/m 0 min 0 min 0 W/m 23,0 km/h (4 Bft) 100,00 %
02.12.2015 01:32 11,1 C 11,7 C 9,4 C 89 % 0 lf 1025,9 hPa 0,0 l/m 0 min 0 min 0 W/m 18,8 km/h (3 Bft) 100,00 %
02.12.2015 01:34 11,1 C 11,1 C 9,4 C 89 % 0 lf 1026,1 hPa 0,0 l/m 0 min 0 min 0 W/m 27,2 km/h (4 Bft) 97,87 %
02.12.2015 01:36 11,1 C 11,7 C 9,4 C 89 % 0 lf 1026,0 hPa 0,0 l/m 0 min 0 min 0 W/m 27,2 km/h (4 Bft) 97,83 %
02.12.2015 01:38 11,1 C 11,7 C 9,4 C 89 % 0 lf 1026,0 hPa 0,0 l/m 0 min 0 min 0 W/m 23,0 km/h (4 Bft) 100,00 %
02.12.2015 01:40 11,1 C 11,7 C 9,4 C 88 % 0 lf 1025,9 hPa 0,0 l/m 0 min 0 min 0 W/m 20,9 km/h (4 Bft) 100,00 %
02.12.2015 01:42 11,1 C 11,1 C 9,4 C 88 % 0 lf 1025,9 hPa 0,0 l/m 0 min 0 min 0 W/m 23,0 km/h (4 Bft) 97,87 %
02.12.2015 01:44 11,1 C 11,1 C 9,4 C 88 % 0 lf 1026,0 hPa 0,0 l/m 0 min 0 min 0 W/m 20,9 km/h (4 Bft) 95,74 %
02.12.2015 01:46 11,1 C 11,1 C 9,4 C 88 % 0 lf 1025,9 hPa 0,0 l/m 0 min 0 min 0 W/m 20,9 km/h (4 Bft) 100,00 %
02.12.2015 01:48 11,1 C 11,1 C 9,4 C 88 % 0 lf 1026,0 hPa 0,0 l/m 0 min 0 min 0 W/m 18,8 km/h (3 Bft) 97,87 %
02.12.2015 01:50 11,1 C 11,1 C 9,4 C 88 % 0 lf 1026,0 hPa 0,0 l/m 0 min 0 min 0 W/m 16,7 km/h (3 Bft) 100,00 %
02.12.2015 01:52 11,1 C 11,1 C 9,4 C 88 % 0 lf 1025,9 hPa 0,0 l/m 0 min 0 min 0 W/m 20,9 km/h (4 Bft) 100,00 %
02.12.2015 01:54 11,1 C 11,1 C 9,4 C 87 % 0 lf 1025,9 hPa 0,0 l/m 0 min 0 min 0 W/m 20,9 km/h (4 Bft) 100,00 %
02.12.2015 01:56 11,1 C 11,1 C 9,4 C 87 % 0 lf 1025,9 hPa 0,0 l/m 0 min 0 min 0 W/m 14,6 km/h (3 Bft) 100,00 %
02.12.2015 01:58 11,1 C 11,1 C 9,4 C 87 % 0 lf 1026,1 hPa 0,0 l/m 0 min 0 min 0 W/m 20,9 km/h (4 Bft) 97,87 %
02.12.2015 02:00 11,1 C 11,1 C 9,4 C 87 % 0 lf 1026,0 hPa 0,0 l/m 0 min 0 min 0 W/m 20,9 km/h (4 Bft) 91,30 %
02.12.2015 02:02 11,1 C 11,7 C 9,4 C 86 % 0 lf 1026,1 hPa 0,0 l/m 0 min 0 min 0 W/m 27,2 km/h (4 Bft) 95,74 %
02.12.2015 02:04 11,1 C 11,7 C 9,4 C 86 % 0 lf 1026,1 hPa 0,0 l/m 0 min 0 min 0 W/m 20,9 km/h (4 Bft) 97,87 %
02.12.2015 02:06 11,1 C 11,7 C 9,4 C 86 % 0 lf 1026,1 hPa 0,0 l/m 0 min 0 min 0 W/m 25,1 km/h (4 Bft) 97,87 %
02.12.2015 02:08 11,1 C 11,7 C 9,4 C 86 % 0 lf 1026,2 hPa 0,0 l/m 0 min 0 min 0 W/m 27,2 km/h (4 Bft) 97,87 %
02.12.2015 02:10 11,1 C 11,7 C 9,4 C 86 % 0 lf 1026,1 hPa 0,0 l/m 0 min 0 min 0 W/m 16,7 km/h (3 Bft) 97,83 %
02.12.2015 02:12 11,1 C 11,1 C 9,4 C 86 % 0 lf 1026,1 hPa 0,0 l/m 0 min 0 min 0 W/m 18,8 km/h (3 Bft) 97,87 %
02.12.2015 02:14 11,1 C 11,1 C 9,4 C 86 % 0 lf 1026,2 hPa 0,0 l/m 0 min 0 min 0 W/m 18,8 km/h (3 Bft) 95,74 %
02.12.2015 02:16 11,1 C 11,1 C 9,4 C 86 % 0 lf 1026,2 hPa 0,0 l/m 0 min 0 min 0 W/m 18,8 km/h (3 Bft) 95,74 %
02.12.2015 02:18 11,1 C 11,1 C 9,4 C 86 % 0 lf 1026,2 hPa 0,0 l/m 0 min 0 min 0 W/m 18,8 km/h (3 Bft) 93,62 %
02.12.2015 02:20 11,1 C 11,1 C 9,4 C 86 % 0 lf 1026,2 hPa 0,0 l/m 0 min 0 min 0 W/m 20,9 km/h (4 Bft) 95,74 %
02.12.2015 02:22 11,1 C 11,1 C 9,4 C 86 % 0 lf 1026,2 hPa 0,0 l/m 0 min 0 min 0 W/m 16,7 km/h (3 Bft) 97,83 %
02.12.2015 02:24 11,1 C 11,1 C 9,4 C 86 % 0 lf 1026,2 hPa 0,0 l/m 0 min 0 min 0 W/m 18,8 km/h (3 Bft) 97,87 %
02.12.2015 02:26 11,1 C 11,1 C 9,4 C 86 % 0 lf 1026,2 hPa 0,0 l/m 0 min 0 min 0 W/m 20,9 km/h (4 Bft) 97,87 %
02.12.2015 02:28 11,1 C 11,1 C 9,4 C 86 % 0 lf 1026,2 hPa 0,0 l/m 0 min 0 min 0 W/m 25,1 km/h (4 Bft) 95,74 %
02.12.2015 02:30 11,1 C 11,1 C 9,4 C 86 % 0 lf 1026,2 hPa 0,0 l/m 0 min 0 min 0 W/m 23,0 km/h (4 Bft) 91,49 %
02.12.2015 02:32 11,1 C 11,1 C 9,4 C 86 % 0 lf 1026,3 hPa 0,0 l/m 0 min 0 min 0 W/m 16,7 km/h (3 Bft) 97,87 %
02.12.2015 02:34 11,1 C 11,1 C 9,4 C 86 % 0 lf 1026,3 hPa 0,0 l/m 0 min 0 min 0 W/m 16,7 km/h (3 Bft) 89,13 %
02.12.2015 02:36 11,1 C 11,1 C 9,4 C 86 % 0 lf 1026,3 hPa 0,0 l/m 0 min 0 min 0 W/m 20,9 km/h (4 Bft) 97,87 %
02.12.2015 02:38 11,1 C 11,1 C 9,4 C 86 % 0 lf 1026,3 hPa 0,0 l/m 0 min 0 min 0 W/m 18,8 km/h (3 Bft) 95,74 %
02.12.2015 02:40 11,1 C 11,1 C 9,4 C 86 % 0 lf 1026,2 hPa 0,0 l/m 0 min 0 min 0 W/m 18,8 km/h (3 Bft) 95,74 %
02.12.2015 02:42 11,1 C 11,1 C 9,4 C 87 % 0 lf 1026,3 hPa 0,0 l/m 0 min 0 min 0 W/m 20,9 km/h (4 Bft) 93,62 %
02.12.2015 02:44 11,1 C 11,1 C 9,4 C 87 % 0 lf 1026,3 hPa 0,0 l/m 0 min 0 min 0 W/m 18,8 km/h (3 Bft) 95,74 %
02.12.2015 02:46 11,1 C 11,1 C 9,4 C 87 % 0 lf 1026,3 hPa 0,0 l/m 0 min 0 min 0 W/m 14,6 km/h (3 Bft) 93,48 %
02.12.2015 02:48 11,1 C 11,1 C 9,4 C 87 % 0 lf 1026,3 hPa 0,0 l/m 0 min 0 min 0 W/m 16,7 km/h (3 Bft) 95,74 %
02.12.2015 02:50 11,1 C 11,1 C 9,4 C 87 % 0 lf 1026,3 hPa 0,0 l/m 0 min 0 min 0 W/m 16,7 km/h (3 Bft) 87,23 %
02.12.2015 02:52 11,1 C 11,1 C 9,4 C 87 % 0 lf 1026,3 hPa 0,0 l/m 0 min 0 min 0 W/m 16,7 km/h (3 Bft) 93,62 %
02.12.2015 02:54 11,1 C 11,1 C 9,4 C 87 % 0 lf 1026,3 hPa 0,0 l/m 0 min 0 min 0 W/m 16,7 km/h (3 Bft) 95,74 %
02.12.2015 02:56 11,1 C 11,1 C 9,4 C 87 % 0 lf 1026,3 hPa 0,0 l/m 0 min 0 min 0 W/m 20,9 km/h (4 Bft) 95,74 %
02.12.2015 02:58 11,1 C 11,1 C 9,4 C 88 % 0 lf 1026,3 hPa 0,0 l/m 0 min 0 min 0 W/m 16,7 km/h (3 Bft) 93,48 %
02.12.2015 03:00 11,1 C 11,1 C 9,4 C 88 % 0 lf 1026,3 hPa 0,0 l/m 0 min 0 min 0 W/m 12,6 km/h (3 Bft) 93,62 %
02.12.2015 03:02 11,1 C 11,1 C 9,4 C 88 % 0 lf 1026,3 hPa 0,0 l/m 0 min 0 min 0 W/m 12,6 km/h (3 Bft) 95,74 %
02.12.2015 03:04 11,1 C 11,1 C 9,4 C 88 % 0 lf 1026,2 hPa 0,0 l/m 0 min 0 min 0 W/m 16,7 km/h (3 Bft) 95,74 %
02.12.2015 03:06 11,1 C 11,1 C 9,4 C 88 % 0 lf 1026,2 hPa 0,0 l/m 0 min 0 min 0 W/m 16,7 km/h (3 Bft) 93,62 %
02.12.2015 03:08 11,1 C 11,1 C 9,4 C 88 % 0 lf 1026,3 hPa 0,0 l/m 0 min 0 min 0 W/m 23,0 km/h (4 Bft) 93,48 %
02.12.2015 03:10 11,1 C 11,1 C 9,4 C 88 % 0 lf 1026,2 hPa 0,0 l/m 0 min 0 min 0 W/m 12,6 km/h (3 Bft) 97,87 %
02.12.2015 03:12 11,1 C 11,1 C 9,4 C 88 % 0 lf 1026,2 hPa 0,0 l/m 0 min 0 min 0 W/m 20,9 km/h (4 Bft) 95,74 %
02.12.2015 03:14 11,0 C 11,1 C 9,4 C 88 % 0 lf 1026,2 hPa 0,0 l/m 0 min 0 min 0 W/m 18,8 km/h (3 Bft) 95,74 %
02.12.2015 03:16 11,0 C 11,1 C 9,4 C 88 % 0 lf 1026,2 hPa 0,0 l/m 0 min 0 min 0 W/m 14,6 km/h (3 Bft) 95,74 %
02.12.2015 03:18 11,0 C 11,1 C 9,4 C 88 % 0 lf 1026,2 hPa 0,0 l/m 0 min 0 min 0 W/m 8,4 km/h (2 Bft) 93,62 %
02.12.2015 03:20 11,0 C 11,1 C 9,4 C 88 % 0 lf 1026,2 hPa 0,0 l/m 0 min 0 min 0 W/m 12,6 km/h (3 Bft) 93,62 %
02.12.2015 03:22 11,0 C 11,1 C 9,4 C 88 % 0 lf 1026,2 hPa 0,0 l/m 0 min 0 min 0 W/m 16,7 km/h (3 Bft) 95,65 %
02.12.2015 03:24 10,9 C 11,1 C 9,4 C 88 % 0 lf 1026,2 hPa 0,0 l/m 0 min 0 min 0 W/m 16,7 km/h (3 Bft) 95,74 %
02.12.2015 03:26 10,9 C 11,1 C 9,4 C 88 % 0 lf 1026,1 hPa 0,0 l/m 0 min 0 min 0 W/m 14,6 km/h (3 Bft) 93,62 %
02.12.2015 03:28 10,9 C 11,1 C 9,4 C 88 % 0 lf 1026,1 hPa 0,0 l/m 0 min 0 min 0 W/m 16,7 km/h (3 Bft) 95,74 %
02.12.2015 03:30 10,9 C 11,1 C 9,4 C 89 % 0 lf 1026,1 hPa 0,0 l/m 0 min 0 min 0 W/m 18,8 km/h (3 Bft) 95,74 %
02.12.2015 03:32 10,9 C 11,1 C 9,4 C 89 % 0 lf 1026,1 hPa 0,0 l/m 0 min 0 min 0 W/m 18,8 km/h (3 Bft) 93,48 %
02.12.2015 03:34 10,9 C 11,1 C 9,4 C 89 % 0 lf 1026,1 hPa 0,0 l/m 0 min 0 min 0 W/m 25,1 km/h (4 Bft) 93,62 %
02.12.2015 03:36 10,9 C 11,1 C 9,4 C 89 % 0 lf 1026,1 hPa 0,0 l/m 0 min 0 min 0 W/m 18,8 km/h (3 Bft) 95,74 %
02.12.2015 03:38 10,9 C 11,1 C 9,4 C 89 % 0 lf 1026,1 hPa 0,0 l/m 0 min 0 min 0 W/m 16,7 km/h (3 Bft) 95,74 %
02.12.2015 03:40 10,9 C 11,1 C 9,4 C 89 % 0 lf 1026,1 hPa 0,0 l/m 0 min 0 min 0 W/m 16,7 km/h (3 Bft) 93,62 %
02.12.2015 03:42 10,9 C 11,1 C 9,4 C 89 % 0 lf 1026,1 hPa 0,0 l/m 0 min 0 min 0 W/m 18,8 km/h (3 Bft) 95,74 %
02.12.2015 03:44 10,9 C 11,1 C 9,4 C 89 % 0 lf 1026,1 hPa 0,0 l/m 0 min 0 min 0 W/m 10,5 km/h (2 Bft) 93,48 %
02.12.2015 03:46 10,9 C 11,1 C 9,4 C 89 % 0 lf 1026,1 hPa 0,0 l/m 0 min 0 min 0 W/m 18,8 km/h (3 Bft) 95,74 %
02.12.2015 03:48 10,9 C 11,1 C 9,4 C 89 % 0 lf 1026,1 hPa 0,0 l/m 0 min 0 min 0 W/m 12,6 km/h (3 Bft) 95,74 %
02.12.2015 03:50 10,9 C 11,1 C 9,4 C 89 % 0 lf 1026,1 hPa 0,0 l/m 0 min 0 min 0 W/m 10,5 km/h (2 Bft) 93,62 %
02.12.2015 03:52 10,9 C 11,1 C 9,4 C 89 % 0 lf 1026,1 hPa 0,0 l/m 0 min 0 min 0 W/m 18,8 km/h (3 Bft) 93,62 %
02.12.2015 03:54 10,9 C 11,1 C 9,4 C 89 % 0 lf 1026,1 hPa 0,0 l/m 0 min 0 min 0 W/m 16,7 km/h (3 Bft) 95,74 %
02.12.2015 03:56 10,9 C 11,1 C 9,4 C 89 % 0 lf 1026,0 hPa 0,0 l/m 0 min 0 min 0 W/m 16,7 km/h (3 Bft) 91,30 %
02.12.2015 03:58 10,8 C 11,1 C 9,4 C 89 % 0 lf 1025,9 hPa 0,0 l/m 0 min 0 min 0 W/m 14,6 km/h (3 Bft) 95,74 %
02.12.2015 04:00 10,8 C 11,1 C 9,4 C 89 % 0 lf 1026,0 hPa 0,0 l/m 0 min 0 min 0 W/m 18,8 km/h (3 Bft) 93,62 %
02.12.2015 04:05 10,8 C 11,1 C 9,4 C 89 % 0 lf 1026,0 hPa 0,0 l/m 0 min 0 min 0 W/m 23,0 km/h (4 Bft) 96,55 %
02.12.2015 04:06 10,8 C 11,1 C 9,4 C 89 % 0 lf 1026,0 hPa 0,0 l/m 0 min 0 min 0 W/m 12,6 km/h (3 Bft) 100,00 %
02.12.2015 04:08 10,8 C 11,1 C 9,4 C 89 % 0 lf 1026,0 hPa 0,0 l/m 0 min 0 min 0 W/m 18,8 km/h (3 Bft) 97,83 %
02.12.2015 04:10 10,8 C 11,1 C 9,4 C 89 % 0 lf 1025,9 hPa 0,0 l/m 0 min 0 min 0 W/m 12,6 km/h (3 Bft) 100,00 %
02.12.2015 04:12 10,8 C 10,6 C 9,4 C 89 % 0 lf 1026,0 hPa 0,0 l/m 0 min 0 min 0 W/m 12,6 km/h (3 Bft) 91,49 %
02.12.2015 04:14 10,8 C 10,6 C 9,4 C 89 % 0 lf 1026,0 hPa 0,0 l/m 0 min 0 min 0 W/m 20,9 km/h (4 Bft) 97,87 %
02.12.2015 04:16 10,8 C 10,6 C 9,4 C 89 % 0 lf 1026,0 hPa 0,0 l/m 0 min 0 min 0 W/m 14,6 km/h (3 Bft) 100,00 %
02.12.2015 04:18 10,8 C 11,1 C 9,4 C 89 % 0 lf 1026,0 hPa 0,0 l/m 0 min 0 min 0 W/m 18,8 km/h (3 Bft) 100,00 %
02.12.2015 04:20 10,8 C 10,6 C 9,4 C 89 % 0 lf 1026,0 hPa 0,0 l/m 0 min 0 min 0 W/m 18,8 km/h (3 Bft) 97,83 %
02.12.2015 04:22 10,7 C 10,6 C 9,4 C 89 % 0 lf 1026,1 hPa 0,0 l/m 0 min 0 min 0 W/m 25,1 km/h (4 Bft) 97,87 %
02.12.2015 04:24 10,7 C 10,6 C 9,4 C 89 % 0 lf 1026,0 hPa 0,0 l/m 0 min 0 min 0 W/m 23,0 km/h (4 Bft) 95,74 %
02.12.2015 04:26 10,7 C 11,1 C 9,4 C 89 % 0 lf 1026,0 hPa 0,0 l/m 0 min 0 min 0 W/m 25,1 km/h (4 Bft) 100,00 %
02.12.2015 04:28 10,7 C 10,6 C 9,4 C 89 % 0 lf 1025,9 hPa 0,0 l/m 0 min 0 min 0 W/m 16,7 km/h (3 Bft) 97,87 %
02.12.2015 04:30 10,7 C 10,6 C 9,4 C 89 % 0 lf 1026,0 hPa 0,0 l/m 0 min 0 min 0 W/m 18,8 km/h (3 Bft) 91,30 %
02.12.2015 04:32 10,7 C 10,6 C 9,4 C 89 % 0 lf 1026,0 hPa 0,0 l/m 0 min 0 min 0 W/m 16,7 km/h (3 Bft) 100,00 %
02.12.2015 04:34 10,7 C 10,6 C 9,4 C 89 % 0 lf 1026,0 hPa 0,0 l/m 0 min 0 min 0 W/m 23,0 km/h (4 Bft) 100,00 %
02.12.2015 04:36 10,7 C 10,6 C 8,9 C 89 % 0 lf 1025,9 hPa 0,0 l/m 0 min 0 min 0 W/m 18,8 km/h (3 Bft) 97,87 %
02.12.2015 04:38 10,7 C 10,6 C 8,9 C 89 % 0 lf 1025,9 hPa 0,0 l/m 0 min 0 min 0 W/m 16,7 km/h (3 Bft) 97,87 %
02.12.2015 04:40 10,7 C 10,6 C 8,9 C 89 % 0 lf 1025,9 hPa 0,0 l/m 0 min 0 min 0 W/m 16,7 km/h (3 Bft) 97,87 %
02.12.2015 04:42 10,7 C 10,6 C 8,9 C 89 % 0 lf 1025,9 hPa 0,0 l/m 0 min 0 min 0 W/m 16,7 km/h (3 Bft) 95,65 %
02.12.2015 04:44 10,7 C 10,6 C 8,9 C 89 % 0 lf 1026,0 hPa 0,0 l/m 0 min 0 min 0 W/m 20,9 km/h (4 Bft) 93,62 %
02.12.2015 04:46 10,7 C 10,6 C 8,9 C 89 % 0 lf 1025,9 hPa 0,0 l/m 0 min 0 min 0 W/m 25,1 km/h (4 Bft) 95,74 %
02.12.2015 04:48 10,7 C 10,6 C 8,9 C 89 % 0 lf 1025,9 hPa 0,0 l/m 0 min 0 min 0 W/m 20,9 km/h (4 Bft) 97,87 %
02.12.2015 04:50 10,7 C 10,6 C 8,9 C 89 % 0 lf 1025,9 hPa 0,0 l/m 0 min 0 min 0 W/m 16,7 km/h (3 Bft) 95,74 %
02.12.2015 04:52 10,6 C 10,6 C 8,9 C 89 % 0 lf 1025,8 hPa 0,0 l/m 0 min 2 min 0 W/m 23,0 km/h (4 Bft) 91,49 %
02.12.2015 04:54 10,6 C 10,6 C 8,9 C 89 % 0 lf 1025,8 hPa 0,0 l/m 0 min 0 min 0 W/m 25,1 km/h (4 Bft) 95,65 %
02.12.2015 04:56 10,6 C 10,6 C 8,9 C 89 % 0 lf 1025,8 hPa 0,0 l/m 0 min 0 min 0 W/m 12,6 km/h (3 Bft) 97,87 %
02.12.2015 04:58 10,6 C 10,6 C 8,9 C 89 % 0 lf 1025,8 hPa 0,0 l/m 0 min 0 min 0 W/m 18,8 km/h (3 Bft) 97,87 %
02.12.2015 05:00 10,6 C 10,6 C 8,9 C 89 % 0 lf 1025,9 hPa 0,0 l/m 0 min 0 min 0 W/m 14,6 km/h (3 Bft) 97,87 %
02.12.2015 05:02 10,6 C 10,6 C 8,9 C 89 % 0 lf 1025,8 hPa 0,0 l/m 0 min 0 min 0 W/m 18,8 km/h (3 Bft) 97,87 %
02.12.2015 05:04 10,6 C 10,6 C 8,9 C 89 % 0 lf 1025,8 hPa 0,0 l/m 0 min 0 min 0 W/m 12,6 km/h (3 Bft) 97,87 %
02.12.2015 05:06 10,6 C 10,6 C 8,9 C 89 % 0 lf 1025,8 hPa 0,0 l/m 0 min 0 min 0 W/m 12,6 km/h (3 Bft) 93,48 %
02.12.2015 05:08 10,6 C 10,6 C 8,9 C 89 % 0 lf 1025,8 hPa 0,0 l/m 0 min 0 min 0 W/m 14,6 km/h (3 Bft) 100,00 %
02.12.2015 05:10 10,6 C 10,6 C 8,9 C 89 % 0 lf 1025,7 hPa 0,0 l/m 0 min 0 min 0 W/m 10,5 km/h (2 Bft) 97,87 %
02.12.2015 05:12 10,6 C 10,6 C 8,9 C 89 % 0 lf 1025,7 hPa 0,0 l/m 0 min 0 min 0 W/m 8,4 km/h (2 Bft) 100,00 %
02.12.2015 05:14 10,6 C 10,6 C 8,9 C 89 % 0 lf 1025,7 hPa 0,0 l/m 0 min 0 min 0 W/m 8,4 km/h (2 Bft) 100,00 %
02.12.2015 05:16 10,6 C 10,6 C 8,9 C 89 % 0 lf 1025,7 hPa 0,0 l/m 0 min 0 min 0 W/m 10,5 km/h (2 Bft) 97,87 %
02.12.2015 05:18 10,5 C 10,6 C 8,9 C 89 % 0 lf 1025,7 hPa 0,0 l/m 0 min 0 min 0 W/m 10,5 km/h (2 Bft) 100,00 %
02.12.2015 05:20 10,5 C 10,6 C 8,9 C 89 % 0 lf 1025,7 hPa 0,0 l/m 0 min 0 min 0 W/m 10,5 km/h (2 Bft) 95,74 %
02.12.2015 05:22 10,5 C 10,6 C 8,9 C 89 % 0 lf 1025,7 hPa 0,0 l/m 0 min 0 min 0 W/m 14,6 km/h (3 Bft) 100,00 %
02.12.2015 05:24 10,4 C 10,6 C 8,9 C 89 % 0 lf 1025,7 hPa 0,0 l/m 0 min 0 min 0 W/m 16,7 km/h (3 Bft) 97,87 %
02.12.2015 05:26 10,4 C 10,6 C 8,9 C 89 % 0 lf 1025,6 hPa 0,0 l/m 0 min 0 min 0 W/m 16,7 km/h (3 Bft) 97,87 %
02.12.2015 05:28 10,4 C 10,6 C 8,9 C 89 % 0 lf 1025,7 hPa 0,0 l/m 0 min 0 min 0 W/m 12,6 km/h (3 Bft) 97,87 %
02.12.2015 05:30 10,4 C 10,6 C 8,9 C 89 % 0 lf 1025,6 hPa 0,0 l/m 0 min 0 min 0 W/m 10,5 km/h (2 Bft) 100,00 %
02.12.2015 05:32 10,4 C 10,6 C 8,9 C 89 % 0 lf 1025,7 hPa 0,0 l/m 0 min 0 min 0 W/m 8,4 km/h (2 Bft) 97,87 %
02.12.2015 05:34 10,4 C 10,6 C 8,9 C 89 % 0 lf 1025,7 hPa 0,0 l/m 0 min 0 min 0 W/m 12,6 km/h (3 Bft) 97,87 %
02.12.2015 05:36 10,4 C 10,6 C 8,9 C 89 % 0 lf 1025,7 hPa 0,0 l/m 0 min 0 min 0 W/m 12,6 km/h (3 Bft) 97,87 %
02.12.2015 05:38 10,4 C 10,6 C 8,9 C 89 % 0 lf 1025,8 hPa 0,0 l/m 0 min 0 min 0 W/m 16,7 km/h (3 Bft) 97,87 %
02.12.2015 05:40 10,4 C 10,6 C 8,9 C 89 % 0 lf 1025,7 hPa 0,0 l/m 0 min 0 min 0 W/m 10,5 km/h (2 Bft) 97,87 %
02.12.2015 05:42 10,3 C 10,6 C 8,9 C 89 % 0 lf 1025,8 hPa 0,0 l/m 0 min 0 min 0 W/m 14,6 km/h (3 Bft) 97,83 %
02.12.2015 05:44 10,3 C 10,6 C 8,9 C 89 % 0 lf 1025,8 hPa 0,0 l/m 0 min 0 min 0 W/m 12,6 km/h (3 Bft) 97,87 %
02.12.2015 05:46 10,3 C 10,6 C 8,9 C 89 % 0 lf 1025,8 hPa 0,0 l/m 0 min 0 min 0 W/m 12,6 km/h (3 Bft) 100,00 %
02.12.2015 05:48 10,3 C 10,6 C 8,9 C 89 % 0 lf 1025,8 hPa 0,0 l/m 0 min 0 min 0 W/m 14,6 km/h (3 Bft) 100,00 %
02.12.2015 05:50 10,3 C 10,6 C 8,9 C 89 % 0 lf 1025,8 hPa 0,0 l/m 0 min 0 min 0 W/m 14,6 km/h (3 Bft) 97,87 %
02.12.2015 05:52 10,3 C 10,6 C 8,9 C 89 % 0 lf 1025,8 hPa 0,0 l/m 0 min 0 min 0 W/m 16,7 km/h (3 Bft) 95,65 %
02.12.2015 05:54 10,3 C 10,6 C 8,9 C 89 % 0 lf 1025,8 hPa 0,0 l/m 0 min 0 min 0 W/m 16,7 km/h (3 Bft) 93,62 %
02.12.2015 05:56 10,3 C 10,6 C 8,9 C 89 % 0 lf 1025,8 hPa 0,0 l/m 0 min 0 min 0 W/m 14,6 km/h (3 Bft) 95,74 %
02.12.2015 05:58 10,3 C 10,6 C 8,9 C 89 % 0 lf 1025,8 hPa 0,0 l/m 0 min 0 min 0 W/m 18,8 km/h (3 Bft) 95,74 %
02.12.2015 06:00 10,3 C 10,6 C 8,9 C 89 % 0 lf 1025,8 hPa 0,0 l/m 0 min 0 min 0 W/m 14,6 km/h (3 Bft) 95,74 %
02.12.2015 06:02 10,3 C 10,6 C 8,9 C 89 % 0 lf 1025,8 hPa 0,0 l/m 0 min 0 min 0 W/m 12,6 km/h (3 Bft) 95,74 %
02.12.2015 06:04 10,3 C 10,6 C 8,9 C 89 % 0 lf 1025,8 hPa 0,0 l/m 0 min 0 min 0 W/m 16,7 km/h (3 Bft) 95,74 %
02.12.2015 06:06 10,3 C 10,6 C 8,9 C 88 % 0 lf 1025,8 hPa 0,0 l/m 0 min 0 min 0 W/m 14,6 km/h (3 Bft) 95,74 %
02.12.2015 06:08 10,3 C 10,6 C 8,9 C 88 % 0 lf 1025,9 hPa 0,0 l/m 0 min 0 min 0 W/m 14,6 km/h (3 Bft) 91,49 %
02.12.2015 06:10 10,3 C 10,6 C 8,9 C 88 % 0 lf 1025,9 hPa 0,0 l/m 0 min 0 min 0 W/m 14,6 km/h (3 Bft) 93,62 %
02.12.2015 06:12 10,3 C 10,6 C 8,9 C 88 % 0 lf 1025,9 hPa 0,0 l/m 0 min 0 min 0 W/m 16,7 km/h (3 Bft) 93,62 %
02.12.2015 06:14 10,3 C 10,6 C 8,9 C 88 % 0 lf 1025,9 hPa 0,0 l/m 0 min 0 min 0 W/m 12,6 km/h (3 Bft) 93,48 %
02.12.2015 06:16 10,3 C 10,6 C 8,9 C 88 % 0 lf 1025,9 hPa 0,0 l/m 0 min 0 min 0 W/m 18,8 km/h (3 Bft) 93,62 %
02.12.2015 06:18 10,3 C 10,6 C 8,9 C 88 % 0 lf 1025,9 hPa 0,0 l/m 0 min 0 min 0 W/m 12,6 km/h (3 Bft) 91,49 %
02.12.2015 06:20 10,3 C 10,6 C 8,9 C 88 % 0 lf 1026,0 hPa 0,0 l/m 0 min 0 min 0 W/m 18,8 km/h (3 Bft) 89,36 %
02.12.2015 06:22 10,3 C 10,6 C 8,9 C 88 % 0 lf 1025,9 hPa 0,0 l/m 0 min 0 min 0 W/m 14,6 km/h (3 Bft) 93,62 %
02.12.2015 06:24 10,3 C 10,6 C 8,9 C 88 % 0 lf 1026,0 hPa 0,0 l/m 0 min 0 min 0 W/m 12,6 km/h (3 Bft) 91,49 %
02.12.2015 06:26 10,3 C 10,6 C 8,9 C 88 % 0 lf 1026,0 hPa 0,0 l/m 0 min 0 min 0 W/m 18,8 km/h (3 Bft) 91,30 %
02.12.2015 06:28 10,3 C 10,6 C 8,9 C 88 % 0 lf 1026,0 hPa 0,0 l/m 0 min 0 min 0 W/m 14,6 km/h (3 Bft) 89,36 %
02.12.2015 06:30 10,3 C 10,6 C 8,9 C 87 % 0 lf 1026,0 hPa 0,0 l/m 0 min 0 min 0 W/m 18,8 km/h (3 Bft) 89,36 %
02.12.2015 06:32 10,3 C 10,6 C 8,9 C 87 % 0 lf 1026,0 hPa 0,0 l/m 0 min 0 min 0 W/m 16,7 km/h (3 Bft) 91,49 %
02.12.2015 06:34 10,3 C 10,6 C 8,9 C 87 % 0 lf 1026,0 hPa 0,0 l/m 0 min 0 min 0 W/m 12,6 km/h (3 Bft) 91,49 %
02.12.2015 06:36 10,3 C 10,6 C 8,9 C 87 % 0 lf 1026,0 hPa 0,0 l/m 0 min 0 min 0 W/m 23,0 km/h (4 Bft) 93,62 %
02.12.2015 06:38 10,3 C 10,6 C 8,9 C 87 % 0 lf 1026,0 hPa 0,0 l/m 0 min 0 min 0 W/m 16,7 km/h (3 Bft) 89,13 %
02.12.2015 06:40 10,3 C 10,6 C 8,9 C 87 % 0 lf 1026,0 hPa 0,0 l/m 0 min 0 min 0 W/m 23,0 km/h (4 Bft) 91,49 %
02.12.2015 06:42 10,3 C 10,6 C 8,9 C 86 % 0 lf 1026,0 hPa 0,0 l/m 0 min 0 min 0 W/m 18,8 km/h (3 Bft) 85,11 %
02.12.2015 06:44 10,3 C 10,6 C 8,9 C 86 % 0 lf 1025,9 hPa 0,0 l/m 0 min 0 min 0 W/m 14,6 km/h (3 Bft) 89,36 %
02.12.2015 06:46 10,3 C 10,6 C 8,9 C 86 % 0 lf 1026,0 hPa 0,0 l/m 0 min 0 min 0 W/m 14,6 km/h (3 Bft) 89,36 %
02.12.2015 06:48 10,4 C 10,6 C 8,9 C 86 % 0 lf 1026,0 hPa 0,0 l/m 0 min 0 min 0 W/m 18,8 km/h (3 Bft) 91,49 %
02.12.2015 06:50 10,4 C 10,6 C 8,9 C 86 % 0 lf 1026,1 hPa 0,0 l/m 0 min 0 min 0 W/m 16,7 km/h (3 Bft) 91,30 %
02.12.2015 06:52 10,4 C 10,6 C 8,9 C 86 % 0 lf 1026,1 hPa 0,0 l/m 0 min 0 min 0 W/m 18,8 km/h (3 Bft) 89,36 %
02.12.2015 06:54 10,4 C 10,6 C 8,9 C 85 % 0 lf 1026,1 hPa 0,0 l/m 0 min 0 min 0 W/m 16,7 km/h (3 Bft) 93,62 %
02.12.2015 06:56 10,4 C 10,6 C 8,9 C 85 % 0 lf 1026,2 hPa 0,0 l/m 0 min 0 min 0 W/m 18,8 km/h (3 Bft) 95,74 %
02.12.2015 06:58 10,4 C 10,6 C 8,9 C 85 % 0 lf 1026,2 hPa 0,0 l/m 0 min 0 min 0 W/m 23,0 km/h (4 Bft) 91,49 %
02.12.2015 07:00 10,4 C 10,6 C 8,9 C 85 % 0 lf 1026,1 hPa 0,0 l/m 0 min 0 min 0 W/m 20,9 km/h (4 Bft) 89,36 %
02.12.2015 07:02 10,4 C 10,6 C 8,9 C 85 % 0 lf 1026,1 hPa 0,0 l/m 0 min 0 min 0 W/m 16,7 km/h (3 Bft) 95,65 %
02.12.2015 07:04 10,4 C 10,6 C 8,9 C 85 % 0 lf 1026,1 hPa 0,0 l/m 0 min 0 min 0 W/m 20,9 km/h (4 Bft) 100,00 %
02.12.2015 07:06 10,4 C 10,6 C 8,9 C 84 % 0 lf 1026,2 hPa 0,0 l/m 0 min 0 min 0 W/m 16,7 km/h (3 Bft) 97,87 %
02.12.2015 07:08 10,4 C 10,6 C 8,9 C 84 % 0 lf 1026,2 hPa 0,0 l/m 0 min 0 min 0 W/m 16,7 km/h (3 Bft) 100,00 %
02.12.2015 07:10 10,4 C 10,6 C 8,9 C 84 % 0 lf 1026,3 hPa 0,0 l/m 0 min 0 min 0 W/m 20,9 km/h (4 Bft) 95,74 %
02.12.2015 07:12 10,4 C 10,6 C 8,9 C 84 % 0 lf 1026,2 hPa 0,0 l/m 0 min 0 min 0 W/m 16,7 km/h (3 Bft) 97,87 %
02.12.2015 07:14 10,4 C 10,6 C 8,9 C 84 % 0 lf 1026,3 hPa 0,0 l/m 0 min 0 min 0 W/m 14,6 km/h (3 Bft) 100,00 %
02.12.2015 07:16 10,4 C 10,6 C 8,9 C 84 % 0 lf 1026,3 hPa 0,0 l/m 0 min 0 min 0 W/m 16,7 km/h (3 Bft) 100,00 %
02.12.2015 07:18 10,4 C 10,6 C 8,9 C 84 % 0 lf 1026,2 hPa 0,0 l/m 0 min 0 min 0 W/m 14,6 km/h (3 Bft) 100,00 %
02.12.2015 07:20 10,4 C 10,6 C 8,9 C 84 % 0 lf 1026,3 hPa 0,0 l/m 0 min 0 min 0 W/m 16,7 km/h (3 Bft) 97,87 %
02.12.2015 07:22 10,4 C 10,6 C 8,9 C 84 % 0 lf 1026,2 hPa 0,0 l/m 0 min 0 min 0 W/m 14,6 km/h (3 Bft) 100,00 %
02.12.2015 07:24 10,4 C 10,6 C 8,9 C 84 % 0 lf 1026,2 hPa 0,0 l/m 0 min 0 min 0 W/m 10,5 km/h (2 Bft) 100,00 %
02.12.2015 07:26 10,4 C 10,6 C 8,9 C 84 % 0 lf 1026,2 hPa 0,0 l/m 0 min 0 min 0 W/m 14,6 km/h (3 Bft) 100,00 %
02.12.2015 07:28 10,4 C 10,6 C 8,9 C 84 % 0 lf 1026,2 hPa 0,0 l/m 0 min 0 min 0 W/m 14,6 km/h (3 Bft) 97,87 %
02.12.2015 07:30 10,3 C 10,6 C 8,9 C 84 % 0 lf 1026,3 hPa 0,0 l/m 0 min 0 min 0 W/m 16,7 km/h (3 Bft) 100,00 %
02.12.2015 07:32 10,3 C 10,6 C 8,9 C 84 % 0 lf 1026,3 hPa 0,0 l/m 0 min 0 min 0 W/m 10,5 km/h (2 Bft) 100,00 %
02.12.2015 07:34 10,3 C 10,6 C 8,9 C 84 % 0 lf 1026,3 hPa 0,0 l/m 0 min 0 min 0 W/m 16,7 km/h (3 Bft) 100,00 %
02.12.2015 07:36 10,3 C 10,6 C 8,9 C 83 % 0 lf 1026,3 hPa 0,0 l/m 0 min 0 min 0 W/m 14,6 km/h (3 Bft) 95,74 %
02.12.2015 07:38 10,3 C 10,6 C 8,9 C 83 % 0 lf 1026,3 hPa 0,0 l/m 0 min 0 min 0 W/m 12,6 km/h (3 Bft) 100,00 %
02.12.2015 07:40 10,3 C 10,6 C 8,9 C 83 % 0 lf 1026,3 hPa 0,0 l/m 0 min 0 min 0 W/m 20,9 km/h (4 Bft) 97,87 %
02.12.2015 07:42 10,3 C 10,6 C 8,9 C 83 % 0 lf 1026,2 hPa 0,0 l/m 0 min 0 min 0 W/m 16,7 km/h (3 Bft) 97,87 %
02.12.2015 07:44 10,3 C 10,6 C 8,9 C 83 % 0 lf 1026,2 hPa 0,0 l/m 0 min 0 min 0 W/m 20,9 km/h (4 Bft) 97,87 %
02.12.2015 07:46 10,3 C 10,6 C 8,9 C 83 % 0 lf 1026,2 hPa 0,0 l/m 0 min 0 min 0 W/m 14,6 km/h (3 Bft) 97,87 %
02.12.2015 07:48 10,3 C 10,6 C 8,9 C 83 % 0 lf 1026,2 hPa 0,0 l/m 0 min 0 min 0 W/m 16,7 km/h (3 Bft) 100,00 %
02.12.2015 07:50 10,3 C 10,6 C 8,9 C 83 % 0 lf 1026,2 hPa 0,0 l/m 0 min 0 min 0 W/m 12,6 km/h (3 Bft) 100,00 %
02.12.2015 07:52 10,3 C 10,6 C 8,9 C 83 % 0 lf 1026,2 hPa 0,0 l/m 0 min 0 min 0 W/m 25,1 km/h (4 Bft) 95,74 %
02.12.2015 07:54 10,3 C 10,6 C 8,9 C 83 % 0 lf 1026,1 hPa 0,0 l/m 0 min 0 min 0 W/m 18,8 km/h (3 Bft) 100,00 %
02.12.2015 07:56 10,3 C 10,6 C 8,9 C 82 % 0 lf 1026,2 hPa 0,0 l/m 0 min 0 min 0 W/m 12,6 km/h (3 Bft) 100,00 %
02.12.2015 07:58 10,3 C 10,6 C 8,9 C 82 % 0 lf 1026,2 hPa 0,0 l/m 0 min 0 min 0 W/m 23,0 km/h (4 Bft) 100,00 %
02.12.2015 08:00 10,3 C 10,6 C 8,9 C 82 % 0 lf 1026,2 hPa 0,0 l/m 0 min 0 min 0 W/m 23,0 km/h (4 Bft) 100,00 %
02.12.2015 08:02 10,3 C 10,6 C 8,9 C 82 % 0 lf 1026,3 hPa 0,0 l/m 0 min 0 min 0 W/m 14,6 km/h (3 Bft) 100,00 %
02.12.2015 08:04 10,3 C 10,6 C 8,9 C 82 % 0 lf 1026,3 hPa 0,0 l/m 0 min 0 min 0 W/m 14,6 km/h (3 Bft) 97,87 %
02.12.2015 08:06 10,3 C 10,6 C 8,9 C 82 % 0 lf 1026,3 hPa 0,0 l/m 0 min 0 min 0 W/m 14,6 km/h (3 Bft) 100,00 %
02.12.2015 08:08 10,3 C 10,6 C 8,9 C 82 % 0 lf 1026,3 hPa 0,0 l/m 0 min 0 min 0 W/m 12,6 km/h (3 Bft) 97,87 %
02.12.2015 08:10 10,3 C 10,6 C 8,9 C 82 % 0 lf 1026,3 hPa 0,0 l/m 0 min 0 min 0 W/m 20,9 km/h (4 Bft) 95,74 %
02.12.2015 08:12 10,3 C 10,6 C 8,9 C 82 % 0 lf 1026,3 hPa 0,0 l/m 0 min 0 min 0 W/m 14,6 km/h (3 Bft) 97,87 %
02.12.2015 08:14 10,3 C 10,6 C 8,9 C 82 % 0 lf 1026,2 hPa 0,0 l/m 0 min 0 min 0 W/m 10,5 km/h (2 Bft) 95,65 %
02.12.2015 08:16 10,3 C 10,6 C 8,9 C 82 % 0 lf 1026,3 hPa 0,0 l/m 0 min 0 min 0 W/m 14,6 km/h (3 Bft) 100,00 %
02.12.2015 08:18 10,3 C 10,6 C 8,9 C 82 % 0 lf 1026,3 hPa 0,0 l/m 0 min 0 min 0 W/m 14,6 km/h (3 Bft) 100,00 %
02.12.2015 08:20 10,3 C 10,6 C 8,9 C 82 % 0 lf 1026,3 hPa 0,0 l/m 0 min 0 min 0 W/m 20,9 km/h (4 Bft) 100,00 %
02.12.2015 08:22 10,3 C 10,6 C 8,9 C 82 % 0 lf 1026,3 hPa 0,0 l/m 0 min 0 min 0 W/m 18,8 km/h (3 Bft) 97,87 %
02.12.2015 08:24 10,3 C 10,6 C 8,9 C 82 % 0 lf 1026,3 hPa 0,0 l/m 0 min 0 min 0 W/m 20,9 km/h (4 Bft) 95,74 %
02.12.2015 08:26 10,3 C 10,6 C 8,9 C 82 % 0 lf 1026,3 hPa 0,0 l/m 0 min 0 min 0 W/m 10,5 km/h (2 Bft) 100,00 %
02.12.2015 08:28 10,3 C 10,6 C 8,9 C 82 % 0 lf 1026,4 hPa 0,0 l/m 0 min 0 min 0 W/m 14,6 km/h (3 Bft) 97,87 %
02.12.2015 08:30 10,3 C 10,6 C 8,9 C 82 % 0 lf 1026,4 hPa 0,0 l/m 0 min 0 min 0 W/m 14,6 km/h (3 Bft) 95,74 %
02.12.2015 08:32 10,3 C 10,6 C 8,9 C 82 % 0 lf 1026,4 hPa 0,0 l/m 0 min 0 min 5 W/m 14,6 km/h (3 Bft) 97,87 %
02.12.2015 08:34 10,3 C 10,6 C 8,9 C 82 % 0 lf 1026,4 hPa 0,0 l/m 0 min 0 min 5 W/m 14,6 km/h (3 Bft) 95,74 %
02.12.2015 08:36 10,2 C 10,6 C 8,9 C 82 % 0 lf 1026,4 hPa 0,0 l/m 0 min 0 min 5 W/m 18,8 km/h (3 Bft) 97,83 %
02.12.2015 08:38 10,3 C 10,6 C 8,9 C 82 % 0 lf 1026,5 hPa 0,0 l/m 0 min 0 min 5 W/m 12,6 km/h (3 Bft) 95,74 %
02.12.2015 08:40 10,2 C 10,6 C 8,9 C 82 % 0 lf 1026,4 hPa 0,0 l/m 0 min 0 min 7 W/m 10,5 km/h (2 Bft) 97,87 %
02.12.2015 08:42 10,2 C 10,6 C 8,9 C 82 % 0 lf 1026,3 hPa 0,0 l/m 0 min 0 min 7 W/m 12,6 km/h (3 Bft) 91,49 %
02.12.2015 08:44 10,2 C 10,6 C 8,9 C 82 % 0 lf 1026,3 hPa 0,0 l/m 0 min 0 min 9 W/m 14,6 km/h (3 Bft) 93,62 %
02.12.2015 08:46 10,2 C 10,6 C 8,9 C 82 % 0 lf 1026,3 hPa 0,0 l/m 0 min 0 min 9 W/m 12,6 km/h (3 Bft) 97,87 %
02.12.2015 08:48 10,2 C 10,6 C 8,9 C 82 % 0 lf 1026,4 hPa 0,0 l/m 0 min 0 min 9 W/m 14,6 km/h (3 Bft) 97,83 %
02.12.2015 08:50 10,2 C 10,6 C 8,9 C 82 % 0 lf 1026,4 hPa 0,0 l/m 0 min 0 min 9 W/m 14,6 km/h (3 Bft) 93,62 %
02.12.2015 08:52 10,2 C 10,6 C 8,9 C 82 % 0 lf 1026,4 hPa 0,0 l/m 0 min 0 min 11 W/m 16,7 km/h (3 Bft) 97,87 %
02.12.2015 08:54 10,2 C 10,6 C 8,9 C 82 % 0 lf 1026,4 hPa 0,0 l/m 0 min 0 min 11 W/m 14,6 km/h (3 Bft) 100,00 %
02.12.2015 08:56 10,2 C 10,6 C 8,9 C 82 % 0 lf 1026,4 hPa 0,0 l/m 0 min 0 min 12 W/m 8,4 km/h (2 Bft) 97,87 %
02.12.2015 08:58 10,2 C 10,6 C 8,9 C 82 % 0 lf 1026,4 hPa 0,0 l/m 0 min 0 min 12 W/m 12,6 km/h (3 Bft) 100,00 %
02.12.2015 09:00 10,2 C 10,6 C 8,9 C 81 % 0 lf 1026,4 hPa 0,0 l/m 0 min 0 min 12 W/m 10,5 km/h (2 Bft) 91,30 %
02.12.2015 09:02 10,3 C 10,6 C 8,9 C 81 % 0 lf 1026,4 hPa 0,0 l/m 0 min 0 min 12 W/m 14,6 km/h (3 Bft) 95,74 %
02.12.2015 09:04 10,2 C 10,6 C 8,9 C 81 % 0 lf 1026,3 hPa 0,0 l/m 0 min 0 min 12 W/m 10,5 km/h (2 Bft) 93,62 %
02.12.2015 09:06 10,2 C 10,6 C 8,9 C 81 % 0 lf 1026,4 hPa 0,0 l/m 0 min 0 min 12 W/m 14,6 km/h (3 Bft) 91,49 %
02.12.2015 09:08 10,2 C 10,6 C 8,9 C 81 % 0 lf 1026,4 hPa 0,0 l/m 0 min 0 min 14 W/m 12,6 km/h (3 Bft) 93,62 %
02.12.2015 09:10 10,2 C 10,6 C 8,9 C 81 % 0 lf 1026,4 hPa 0,0 l/m 0 min 0 min 14 W/m 12,6 km/h (3 Bft) 95,74 %
02.12.2015 09:12 10,2 C 10,6 C 8,9 C 81 % 0 lf 1026,4 hPa 0,0 l/m 0 min 0 min 14 W/m 16,7 km/h (3 Bft) 93,48 %
02.12.2015 09:14 10,3 C 10,6 C 8,9 C 81 % 0 lf 1026,4 hPa 0,0 l/m 0 min 0 min 16 W/m 16,7 km/h (3 Bft) 95,74 %
02.12.2015 09:16 10,3 C 10,6 C 8,9 C 81 % 0 lf 1026,4 hPa 0,0 l/m 0 min 0 min 16 W/m 23,0 km/h (4 Bft) 95,74 %
02.12.2015 09:18 10,3 C 10,6 C 8,9 C 81 % 0 lf 1026,4 hPa 0,0 l/m 0 min 0 min 16 W/m 20,9 km/h (4 Bft) 95,74 %
02.12.2015 09:20 10,3 C 10,6 C 8,9 C 81 % 0 lf 1026,4 hPa 0,0 l/m 0 min 0 min 18 W/m 12,6 km/h (3 Bft) 93,62 %
02.12.2015 09:22 10,3 C 10,6 C 8,9 C 80 % 0 lf 1026,4 hPa 0,0 l/m 0 min 0 min 18 W/m 18,8 km/h (3 Bft) 93,62 %
02.12.2015 09:24 10,3 C 10,6 C 8,9 C 80 % 0 lf 1026,5 hPa 0,0 l/m 0 min 0 min 18 W/m 16,7 km/h (3 Bft) 95,65 %
02.12.2015 09:26 10,3 C 10,6 C 8,9 C 80 % 0 lf 1026,5 hPa 0,0 l/m 0 min 0 min 19 W/m 16,7 km/h (3 Bft) 91,49 %
02.12.2015 09:28 10,3 C 10,6 C 8,9 C 80 % 0 lf 1026,5 hPa 0,0 l/m 0 min 0 min 19 W/m 16,7 km/h (3 Bft) 93,62 %
02.12.2015 09:30 10,3 C 10,6 C 8,9 C 80 % 0 lf 1026,5 hPa 0,0 l/m 0 min 0 min 21 W/m 23,0 km/h (4 Bft) 95,74 %
02.12.2015 09:32 10,3 C 10,6 C 8,9 C 80 % 0 lf 1026,5 hPa 0,0 l/m 0 min 0 min 21 W/m 20,9 km/h (4 Bft) 95,74 %
02.12.2015 09:34 10,3 C 10,6 C 8,9 C 80 % 0 lf 1026,5 hPa 0,0 l/m 0 min 0 min 21 W/m 18,8 km/h (3 Bft) 87,23 %
02.12.2015 09:36 10,3 C 10,6 C 8,9 C 80 % 0 lf 1026,6 hPa 0,0 l/m 0 min 0 min 21 W/m 14,6 km/h (3 Bft) 89,13 %
02.12.2015 09:38 10,3 C 10,6 C 8,9 C 80 % 0 lf 1026,6 hPa 0,0 l/m 0 min 0 min 21 W/m 25,1 km/h (4 Bft) 93,62 %
02.12.2015 09:40 10,3 C 10,6 C 8,9 C 80 % 0 lf 1026,7 hPa 0,0 l/m 0 min 0 min 21 W/m 18,8 km/h (3 Bft) 93,62 %
02.12.2015 09:42 10,3 C 10,6 C 8,9 C 80 % 0 lf 1026,7 hPa 0,0 l/m 0 min 0 min 21 W/m 18,8 km/h (3 Bft) 93,62 %
02.12.2015 09:44 10,4 C 10,6 C 8,9 C 80 % 0 lf 1026,8 hPa 0,0 l/m 0 min 0 min 21 W/m 12,6 km/h (3 Bft) 91,49 %
02.12.2015 09:46 10,4 C 10,6 C 8,9 C 80 % 0 lf 1026,8 hPa 0,0 l/m 0 min 0 min 21 W/m 12,6 km/h (3 Bft) 93,48 %
02.12.2015 09:48 10,4 C 10,6 C 8,9 C 80 % 0 lf 1026,9 hPa 0,0 l/m 0 min 0 min 22 W/m 14,6 km/h (3 Bft) 91,49 %
02.12.2015 09:50 10,4 C 10,6 C 8,9 C 80 % 0 lf 1026,9 hPa 0,0 l/m 0 min 0 min 21 W/m 10,5 km/h (2 Bft) 93,62 %
02.12.2015 09:52 10,4 C 10,6 C 8,9 C 80 % 0 lf 1026,9 hPa 0,0 l/m 0 min 0 min 21 W/m 14,6 km/h (3 Bft) 93,62 %
02.12.2015 09:54 10,4 C 10,6 C 8,9 C 80 % 0 lf 1026,8 hPa 0,0 l/m 0 min 0 min 21 W/m 18,8 km/h (3 Bft) 93,62 %
02.12.2015 09:56 10,4 C 10,6 C 8,9 C 80 % 0 lf 1026,9 hPa 0,0 l/m 0 min 0 min 23 W/m 14,6 km/h (3 Bft) 97,87 %
02.12.2015 09:58 10,4 C 10,6 C 8,9 C 80 % 0 lf 1026,8 hPa 0,0 l/m 0 min 0 min 23 W/m 18,8 km/h (3 Bft) 97,83 %
02.12.2015 10:00 10,4 C 10,6 C 8,9 C 80 % 0 lf 1026,9 hPa 0,0 l/m 0 min 0 min 23 W/m 14,6 km/h (3 Bft) 97,87 %
02.12.2015 10:02 10,4 C 10,6 C 8,9 C 80 % 0 lf 1026,9 hPa 0,0 l/m 0 min 0 min 25 W/m 14,6 km/h (3 Bft) 93,62 %
02.12.2015 10:04 10,4 C 10,6 C 8,9 C 80 % 0 lf 1026,9 hPa 0,0 l/m 0 min 0 min 26 W/m 12,6 km/h (3 Bft) 97,87 %
02.12.2015 10:06 10,4 C 10,6 C 8,9 C 80 % 0 lf 1026,9 hPa 0,0 l/m 0 min 0 min 30 W/m 16,7 km/h (3 Bft) 97,87 %
02.12.2015 10:08 10,4 C 10,6 C 8,9 C 80 % 0 lf 1026,9 hPa 0,0 l/m 0 min 0 min 33 W/m 16,7 km/h (3 Bft) 91,49 %
02.12.2015 10:10 10,4 C 10,6 C 8,9 C 80 % 0 lf 1026,8 hPa 0,0 l/m 0 min 0 min 35 W/m 16,7 km/h (3 Bft) 95,65 %
02.12.2015 10:12 10,4 C 10,6 C 8,9 C 80 % 0 lf 1026,8 hPa 0,0 l/m 0 min 0 min 39 W/m 18,8 km/h (3 Bft) 95,74 %
02.12.2015 10:14 10,4 C 10,6 C 8,9 C 80 % 0 lf 1026,8 hPa 0,0 l/m 0 min 0 min 39 W/m 12,6 km/h (3 Bft) 97,87 %
02.12.2015 10:16 10,4 C 10,6 C 8,9 C 80 % 0 lf 1026,9 hPa 0,0 l/m 0 min 0 min 40 W/m 23,0 km/h (4 Bft) 93,62 %
02.12.2015 10:18 10,4 C 10,6 C 8,9 C 80 % 0 lf 1026,9 hPa 0,0 l/m 0 min 0 min 39 W/m 14,6 km/h (3 Bft) 91,49 %
02.12.2015 10:20 10,4 C 10,6 C 9,4 C 80 % 0 lf 1026,8 hPa 0,0 l/m 0 min 0 min 39 W/m 16,7 km/h (3 Bft) 95,74 %
02.12.2015 10:22 10,4 C 10,6 C 8,9 C 80 % 0 lf 1026,9 hPa 0,0 l/m 0 min 0 min 40 W/m 14,6 km/h (3 Bft) 95,65 %
02.12.2015 10:24 10,4 C 10,6 C 8,9 C 80 % 0 lf 1026,9 hPa 0,0 l/m 0 min 0 min 40 W/m 14,6 km/h (3 Bft) 95,74 %
02.12.2015 10:26 10,4 C 11,1 C 8,9 C 80 % 0 lf 1026,9 hPa 0,0 l/m 0 min 0 min 40 W/m 10,5 km/h (2 Bft) 93,62 %
02.12.2015 10:28 10,4 C 11,1 C 8,9 C 80 % 0 lf 1027,0 hPa 0,0 l/m 0 min 0 min 42 W/m 10,5 km/h (2 Bft) 93,62 %
02.12.2015 10:30 10,4 C 11,1 C 8,9 C 80 % 0 lf 1026,9 hPa 0,0 l/m 0 min 0 min 42 W/m 23,0 km/h (4 Bft) 95,74 %
02.12.2015 10:32 10,4 C 11,1 C 8,9 C 80 % 0 lf 1026,9 hPa 0,0 l/m 0 min 0 min 42 W/m 20,9 km/h (4 Bft) 91,49 %
02.12.2015 10:34 10,4 C 11,1 C 9,4 C 80 % 0 lf 1026,9 hPa 0,0 l/m 0 min 0 min 43 W/m 20,9 km/h (4 Bft) 93,48 %
02.12.2015 10:36 10,4 C 11,1 C 9,4 C 80 % 0 lf 1026,9 hPa 0,0 l/m 0 min 0 min 44 W/m 20,9 km/h (4 Bft) 95,74 %
02.12.2015 10:38 10,4 C 11,1 C 9,4 C 80 % 0 lf 1026,9 hPa 0,0 l/m 0 min 0 min 44 W/m 16,7 km/h (3 Bft) 95,74 %
02.12.2015 10:40 10,4 C 11,1 C 9,4 C 80 % 0 lf 1027,0 hPa 0,0 l/m 0 min 0 min 44 W/m 10,5 km/h (2 Bft) 93,62 %
02.12.2015 10:42 10,4 C 11,1 C 9,4 C 80 % 0 lf 1026,9 hPa 0,0 l/m 0 min 0 min 47 W/m 16,7 km/h (3 Bft) 97,87 %
02.12.2015 10:44 10,4 C 11,1 C 9,4 C 80 % 0 lf 1027,0 hPa 0,0 l/m 0 min 0 min 47 W/m 16,7 km/h (3 Bft) 95,74 %
02.12.2015 10:46 10,4 C 11,1 C 9,4 C 80 % 0 lf 1027,0 hPa 0,0 l/m 0 min 0 min 47 W/m 16,7 km/h (3 Bft) 95,65 %
02.12.2015 10:48 10,4 C 11,1 C 9,4 C 80 % 0 lf 1027,0 hPa 0,0 l/m 0 min 0 min 47 W/m 20,9 km/h (4 Bft) 97,87 %
02.12.2015 10:50 10,5 C 11,1 C 9,4 C 80 % 0 lf 1027,0 hPa 0,0 l/m 0 min 0 min 47 W/m 12,6 km/h (3 Bft) 95,74 %
02.12.2015 10:52 10,5 C 11,1 C 9,4 C 80 % 0 lf 1027,0 hPa 0,0 l/m 0 min 0 min 47 W/m 14,6 km/h (3 Bft) 97,87 %
02.12.2015 10:54 10,5 C 11,1 C 9,4 C 80 % 0 lf 1027,0 hPa 0,0 l/m 0 min 0 min 47 W/m 18,8 km/h (3 Bft) 97,87 %
02.12.2015 10:56 10,5 C 11,1 C 9,4 C 79 % 0 lf 1027,1 hPa 0,0 l/m 0 min 0 min 46 W/m 20,9 km/h (4 Bft) 97,87 %
02.12.2015 10:58 10,5 C 11,1 C 9,4 C 79 % 0 lf 1027,0 hPa 0,0 l/m 0 min 0 min 46 W/m 20,9 km/h (4 Bft) 97,83 %
02.12.2015 11:00 10,5 C 11,1 C 9,4 C 79 % 0 lf 1027,1 hPa 0,0 l/m 0 min 0 min 46 W/m 18,8 km/h (3 Bft) 97,87 %
02.12.2015 11:02 10,5 C 11,1 C 9,4 C 79 % 0 lf 1027,1 hPa 0,0 l/m 0 min 0 min 47 W/m 16,7 km/h (3 Bft) 100,00 %
02.12.2015 11:05 10,6 C 11,1 C 9,4 C 79 % 0 lf 1027,1 hPa 0,0 l/m 0 min 0 min 47 W/m 23,0 km/h (4 Bft) 98,57 %
02.12.2015 11:06 10,6 C 11,1 C 9,4 C 79 % 0 lf 1027,1 hPa 0,0 l/m 0 min 0 min 49 W/m 18,8 km/h (3 Bft) 100,00 %
02.12.2015 11:08 10,6 C 11,1 C 9,4 C 79 % 0 lf 1027,1 hPa 0,0 l/m 0 min 0 min 51 W/m 18,8 km/h (3 Bft) 100,00 %
02.12.2015 11:10 10,6 C 11,1 C 9,4 C 79 % 0 lf 1027,1 hPa 0,0 l/m 0 min 0 min 51 W/m 20,9 km/h (4 Bft) 100,00 %
02.12.2015 11:12 10,6 C 11,1 C 9,4 C 79 % 0 lf 1027,1 hPa 0,0 l/m 0 min 0 min 51 W/m 16,7 km/h (3 Bft) 100,00 %
02.12.2015 11:14 10,6 C 11,1 C 9,4 C 79 % 0 lf 1027,1 hPa 0,0 l/m 0 min 0 min 50 W/m 20,9 km/h (4 Bft) 100,00 %
02.12.2015 11:16 10,6 C 11,1 C 9,4 C 79 % 0 lf 1027,2 hPa 0,0 l/m 0 min 0 min 48 W/m 18,8 km/h (3 Bft) 91,49 %
02.12.2015 11:17 10,6 C 11,1 C 9,4 C 79 % 0 lf 1027,1 hPa 0,0 l/m 0 min 0 min 49 W/m 18,8 km/h (3 Bft) 100,00 %
02.12.2015 11:18 10,6 C 11,1 C 9,4 C 79 % 0 lf 1027,1 hPa 0,0 l/m 0 min 0 min 49 W/m 14,6 km/h (3 Bft) 100,00 %
02.12.2015 11:19 10,6 C 11,1 C 9,4 C 79 % 0 lf 1027,1 hPa 0,0 l/m 0 min 0 min 49 W/m 10,5 km/h (2 Bft) 100,00 %
02.12.2015 11:20 10,6 C 11,1 C 9,4 C 79 % 0 lf 1027,1 hPa 0,0 l/m 0 min 0 min 49 W/m 16,7 km/h (3 Bft) 100,00 %
02.12.2015 11:22 10,6 C 11,1 C 9,4 C 79 % 0 lf 1027,0 hPa 0,0 l/m 0 min 0 min 51 W/m 14,6 km/h (3 Bft) 100,00 %
02.12.2015 11:24 10,6 C 11,1 C 9,4 C 79 % 0 lf 1027,1 hPa 0,0 l/m 0 min 0 min 53 W/m 20,9 km/h (4 Bft) 95,56 %
02.12.2015 11:26 10,6 C 11,1 C 9,4 C 79 % 0 lf 1027,1 hPa 0,0 l/m 0 min 0 min 53 W/m 18,8 km/h (3 Bft) 97,83 %
02.12.2015 11:28 10,6 C 11,1 C 9,4 C 78 % 0 lf 1027,0 hPa 0,0 l/m 0 min 0 min 54 W/m 14,6 km/h (3 Bft) 100,00 %
02.12.2015 11:30 10,6 C 11,1 C 9,4 C 78 % 0 lf 1027,0 hPa 0,0 l/m 0 min 0 min 54 W/m 18,8 km/h (3 Bft) 100,00 %
02.12.2015 11:32 10,6 C 11,1 C 9,4 C 78 % 0 lf 1027,1 hPa 0,0 l/m 0 min 0 min 54 W/m 12,6 km/h (3 Bft) 100,00 %
02.12.2015 11:34 10,6 C 11,1 C 9,4 C 79 % 0 lf 1027,0 hPa 0,0 l/m 0 min 0 min 54 W/m 18,8 km/h (3 Bft) 97,87 %
02.12.2015 11:36 10,7 C 11,1 C 9,4 C 79 % 0 lf 1027,0 hPa 0,0 l/m 0 min 0 min 54 W/m 18,8 km/h (3 Bft) 95,74 %
02.12.2015 11:38 10,7 C 11,1 C 9,4 C 79 % 0 lf 1026,9 hPa 0,0 l/m 0 min 0 min 57 W/m 16,7 km/h (3 Bft) 95,65 %
02.12.2015 11:40 10,6 C 11,1 C 9,4 C 79 % 0 lf 1026,9 hPa 0,0 l/m 0 min 0 min 61 W/m 25,1 km/h (4 Bft) 97,87 %
02.12.2015 11:42 10,7 C 11,1 C 9,4 C 78 % 0 lf 1026,9 hPa 0,0 l/m 0 min 0 min 62 W/m 16,7 km/h (3 Bft) 100,00 %
02.12.2015 11:44 10,7 C 11,1 C 9,4 C 78 % 0 lf 1026,9 hPa 0,0 l/m 0 min 0 min 63 W/m 16,7 km/h (3 Bft) 100,00 %
02.12.2015 11:46 10,7 C 11,1 C 9,4 C 78 % 0 lf 1026,9 hPa 0,0 l/m 0 min 0 min 63 W/m 12,6 km/h (3 Bft) 97,87 %
02.12.2015 11:48 10,7 C 11,7 C 9,4 C 78 % 0 lf 1026,9 hPa 0,0 l/m 0 min 0 min 64 W/m 14,6 km/h (3 Bft) 100,00 %
02.12.2015 11:50 10,7 C 11,7 C 9,4 C 78 % 0 lf 1026,9 hPa 0,0 l/m 0 min 0 min 66 W/m 14,6 km/h (3 Bft) 97,83 %
02.12.2015 11:52 10,7 C 11,7 C 9,4 C 78 % 0 lf 1026,8 hPa 0,0 l/m 0 min 0 min 68 W/m 14,6 km/h (3 Bft) 97,87 %
02.12.2015 11:54 10,7 C 11,7 C 9,4 C 78 % 0 lf 1026,9 hPa 0,0 l/m 0 min 0 min 69 W/m 23,0 km/h (4 Bft) 91,49 %
02.12.2015 11:56 10,7 C 11,7 C 9,4 C 78 % 0 lf 1026,9 hPa 0,0 l/m 0 min 0 min 71 W/m 14,6 km/h (3 Bft) 97,87 %
02.12.2015 11:58 10,7 C 11,7 C 10,0 C 78 % 0 lf 1026,8 hPa 0,0 l/m 0 min 0 min 72 W/m 14,6 km/h (3 Bft) 95,74 %
02.12.2015 12:00 10,8 C 11,7 C 10,0 C 78 % 0 lf 1026,8 hPa 0,0 l/m 0 min 0 min 72 W/m 16,7 km/h (3 Bft) 97,96 %
02.12.2015 12:02 10,8 C 11,7 C 10,0 C 78 % 0 lf 1026,8 hPa 0,0 l/m 0 min 0 min 70 W/m 14,6 km/h (3 Bft) 97,87 %
02.12.2015 12:04 10,8 C 11,7 C 10,0 C 78 % 0 lf 1026,8 hPa 0,0 l/m 0 min 0 min 69 W/m 20,9 km/h (4 Bft) 95,74 %
02.12.2015 12:06 10,8 C 11,7 C 10,0 C 78 % 0 lf 1026,8 hPa 0,0 l/m 0 min 0 min 69 W/m 20,9 km/h (4 Bft) 91,30 %
02.12.2015 12:08 10,8 C 11,7 C 10,0 C 78 % 0 lf 1026,8 hPa 0,0 l/m 0 min 0 min 72 W/m 14,6 km/h (3 Bft) 89,36 %
02.12.2015 12:10 10,8 C 11,7 C 10,0 C 77 % 0 lf 1026,7 hPa 0,0 l/m 0 min 0 min 73 W/m 18,8 km/h (3 Bft) 95,74 %
02.12.2015 12:12 10,8 C 11,7 C 10,0 C 77 % 0 lf 1026,7 hPa 0,0 l/m 0 min 0 min 76 W/m 16,7 km/h (3 Bft) 89,36 %
02.12.2015 12:14 10,8 C 11,7 C 10,0 C 77 % 0 lf 1026,7 hPa 0,0 l/m 0 min 0 min 78 W/m 18,8 km/h (3 Bft) 95,74 %
02.12.2015 12:16 10,8 C 11,7 C 10,0 C 78 % 0 lf 1026,7 hPa 0,0 l/m 0 min 0 min 81 W/m 18,8 km/h (3 Bft) 91,30 %
02.12.2015 12:18 10,8 C 11,7 C 10,0 C 78 % 0 lf 1026,7 hPa 0,0 l/m 0 min 0 min 85 W/m 23,0 km/h (4 Bft) 89,36 %
02.12.2015 12:20 10,9 C 11,7 C 10,0 C 78 % 0 lf 1026,7 hPa 0,0 l/m 0 min 0 min 86 W/m 18,8 km/h (3 Bft) 91,49 %
02.12.2015 12:22 10,9 C 11,7 C 10,0 C 78 % 0 lf 1026,7 hPa 0,0 l/m 0 min 0 min 90 W/m 16,7 km/h (3 Bft) 89,36 %
02.12.2015 12:24 10,9 C 11,7 C 10,0 C 78 % 0 lf 1026,6 hPa 0,0 l/m 0 min 0 min 90 W/m 14,6 km/h (3 Bft) 93,62 %
02.12.2015 12:26 10,9 C 11,7 C 10,0 C 78 % 0 lf 1026,7 hPa 0,0 l/m 0 min 0 min 91 W/m 12,6 km/h (3 Bft) 93,62 %
02.12.2015 12:28 10,9 C 11,7 C 10,0 C 78 % 0 lf 1026,5 hPa 0,0 l/m 0 min 0 min 91 W/m 18,8 km/h (3 Bft) 89,13 %
02.12.2015 12:30 10,9 C 11,7 C 10,0 C 78 % 0 lf 1026,5 hPa 0,0 l/m 0 min 0 min 92 W/m 16,7 km/h (3 Bft) 91,49 %
02.12.2015 12:32 10,9 C 11,7 C 10,0 C 78 % 0 lf 1026,6 hPa 0,0 l/m 0 min 0 min 92 W/m 23,0 km/h (4 Bft) 93,62 %
02.12.2015 12:34 10,9 C 11,7 C 10,0 C 78 % 0 lf 1026,6 hPa 0,0 l/m 0 min 0 min 88 W/m 18,8 km/h (3 Bft) 91,49 %
02.12.2015 12:36 11,0 C 11,7 C 10,0 C 77 % 0 lf 1026,6 hPa 0,0 l/m 0 min 0 min 85 W/m 23,0 km/h (4 Bft) 89,36 %
02.12.2015 12:38 11,0 C 11,7 C 10,0 C 77 % 0 lf 1026,5 hPa 0,0 l/m 0 min 0 min 81 W/m 14,6 km/h (3 Bft) 95,74 %
02.12.2015 12:40 11,0 C 11,7 C 10,0 C 77 % 0 lf 1026,5 hPa 0,0 l/m 0 min 0 min 85 W/m 14,6 km/h (3 Bft) 95,65 %
02.12.2015 12:42 11,0 C 11,7 C 10,0 C 77 % 0 lf 1026,6 hPa 0,0 l/m 0 min 0 min 82 W/m 25,1 km/h (4 Bft) 95,74 %
02.12.2015 12:44 11,0 C 11,7 C 10,0 C 77 % 0 lf 1026,6 hPa 0,0 l/m 0 min 0 min 83 W/m 23,0 km/h (4 Bft) 93,62 %
02.12.2015 12:46 11,0 C 11,7 C 10,0 C 77 % 0 lf 1026,7 hPa 0,0 l/m 0 min 0 min 83 W/m 20,9 km/h (4 Bft) 95,74 %
02.12.2015 12:48 11,1 C 11,7 C 10,0 C 77 % 0 lf 1026,6 hPa 0,0 l/m 0 min 0 min 80 W/m 12,6 km/h (3 Bft) 97,87 %
02.12.2015 12:50 11,1 C 11,7 C 10,0 C 77 % 0 lf 1026,6 hPa 0,0 l/m 0 min 0 min 81 W/m 25,1 km/h (4 Bft) 93,62 %
02.12.2015 12:52 11,1 C 11,7 C 10,0 C 77 % 0 lf 1026,6 hPa 0,0 l/m 0 min 0 min 81 W/m 23,0 km/h (4 Bft) 97,83 %
02.12.2015 12:54 11,1 C 11,7 C 10,0 C 77 % 0 lf 1026,7 hPa 0,0 l/m 0 min 0 min 81 W/m 16,7 km/h (3 Bft) 100,00 %
02.12.2015 12:56 11,1 C 11,7 C 10,0 C 77 % 0 lf 1026,7 hPa 0,0 l/m 0 min 0 min 76 W/m 18,8 km/h (3 Bft) 97,87 %
02.12.2015 12:58 11,1 C 11,7 C 10,0 C 77 % 0 lf 1026,6 hPa 0,0 l/m 0 min 0 min 78 W/m 23,0 km/h (4 Bft) 91,49 %
02.12.2015 13:00 11,1 C 11,7 C 10,0 C 76 % 0 lf 1026,6 hPa 0,0 l/m 0 min 0 min 82 W/m 16,7 km/h (3 Bft) 100,00 %
02.12.2015 13:02 11,1 C 11,7 C 10,0 C 77 % 0 lf 1026,5 hPa 0,0 l/m 0 min 0 min 85 W/m 16,7 km/h (3 Bft) 100,00 %
02.12.2015 13:04 11,1 C 11,7 C 10,0 C 77 % 0 lf 1026,7 hPa 0,0 l/m 0 min 0 min 89 W/m 25,1 km/h (4 Bft) 97,83 %
02.12.2015 13:06 11,1 C 11,7 C 10,0 C 77 % 0 lf 1026,7 hPa 0,0 l/m 0 min 0 min 84 W/m 16,7 km/h (3 Bft) 97,87 %
02.12.2015 13:08 11,1 C 11,7 C 10,0 C 77 % 0 lf 1026,7 hPa 0,0 l/m 0 min 0 min 87 W/m 23,0 km/h (4 Bft) 100,00 %
02.12.2015 13:10 11,1 C 11,7 C 10,0 C 77 % 0 lf 1026,6 hPa 0,0 l/m 0 min 0 min 84 W/m 18,8 km/h (3 Bft) 95,74 %
02.12.2015 13:12 11,1 C 11,7 C 10,0 C 77 % 0 lf 1026,5 hPa 0,0 l/m 0 min 0 min 78 W/m 16,7 km/h (3 Bft) 100,00 %
02.12.2015 13:14 11,1 C 11,7 C 10,0 C 77 % 0 lf 1026,6 hPa 0,0 l/m 0 min 0 min 78 W/m 18,8 km/h (3 Bft) 97,87 %
02.12.2015 13:16 11,1 C 11,7 C 10,0 C 77 % 0 lf 1026,6 hPa 0,0 l/m 0 min 0 min 74 W/m 20,9 km/h (4 Bft) 95,65 %
02.12.2015 13:18 11,1 C 11,7 C 10,0 C 77 % 0 lf 1026,6 hPa 0,0 l/m 0 min 0 min 76 W/m 16,7 km/h (3 Bft) 97,87 %
02.12.2015 13:20 11,1 C 11,7 C 10,0 C 77 % 0 lf 1026,6 hPa 0,0 l/m 0 min 0 min 76 W/m 18,8 km/h (3 Bft) 100,00 %
02.12.2015 13:22 11,1 C 11,7 C 10,0 C 77 % 0 lf 1026,6 hPa 0,0 l/m 0 min 0 min 75 W/m 16,7 km/h (3 Bft) 97,87 %
02.12.2015 13:24 11,1 C 11,7 C 10,0 C 77 % 0 lf 1026,6 hPa 0,0 l/m 0 min 0 min 74 W/m 14,6 km/h (3 Bft) 97,87 %
02.12.2015 13:26 11,2 C 11,7 C 10,0 C 77 % 0 lf 1026,6 hPa 0,0 l/m 0 min 0 min 77 W/m 16,7 km/h (3 Bft) 97,83 %
02.12.2015 13:28 11,1 C 11,7 C 10,0 C 77 % 0 lf 1026,6 hPa 0,0 l/m 0 min 0 min 81 W/m 12,6 km/h (3 Bft) 95,74 %
02.12.2015 13:30 11,2 C 11,7 C 10,0 C 77 % 0 lf 1026,5 hPa 0,0 l/m 0 min 0 min 82 W/m 20,9 km/h (4 Bft) 95,74 %
02.12.2015 13:32 11,2 C 11,7 C 10,0 C 77 % 0 lf 1026,5 hPa 0,0 l/m 0 min 0 min 89 W/m 18,8 km/h (3 Bft) 93,62 %
02.12.2015 13:34 11,2 C 12,2 C 10,0 C 77 % 0 lf 1026,5 hPa 0,0 l/m 0 min 0 min 99 W/m 12,6 km/h (3 Bft) 95,74 %
02.12.2015 13:36 11,2 C 12,2 C 10,0 C 77 % 0 lf 1026,5 hPa 0,0 l/m 0 min 0 min 105 W/m 18,8 km/h (3 Bft) 97,87 %
02.12.2015 13:38 11,2 C 12,2 C 10,0 C 77 % 0 lf 1026,6 hPa 0,0 l/m 0 min 0 min 106 W/m 29,3 km/h (5 Bft) 97,83 %
02.12.2015 13:40 11,2 C 12,2 C 10,6 C 77 % 0 lf 1026,6 hPa 0,0 l/m 0 min 0 min 111 W/m 14,6 km/h (3 Bft) 95,74 %
02.12.2015 13:42 11,2 C 12,2 C 10,6 C 77 % 0 lf 1026,6 hPa 0,0 l/m 0 min 0 min 113 W/m 12,6 km/h (3 Bft) 93,62 %
02.12.2015 13:44 11,2 C 12,8 C 10,6 C 77 % 0 lf 1026,5 hPa 0,0 l/m 0 min 0 min 117 W/m 10,5 km/h (2 Bft) 93,62 %
02.12.2015 13:46 11,2 C 12,8 C 10,6 C 77 % 0 lf 1026,5 hPa 0,0 l/m 0 min 0 min 113 W/m 12,6 km/h (3 Bft) 95,74 %
02.12.2015 13:48 11,2 C 12,2 C 10,6 C 77 % 0 lf 1026,5 hPa 0,0 l/m 0 min 0 min 119 W/m 18,8 km/h (3 Bft) 97,87 %
02.12.2015 13:50 11,3 C 12,2 C 10,6 C 77 % 0 lf 1026,5 hPa 0,0 l/m 0 min 0 min 121 W/m 16,7 km/h (3 Bft) 97,83 %
02.12.2015 13:52 11,3 C 12,2 C 10,6 C 77 % 0 lf 1026,4 hPa 0,0 l/m 2 min 0 min 125 W/m 18,8 km/h (3 Bft) 97,87 %
02.12.2015 13:54 11,3 C 12,8 C 10,6 C 77 % 0 lf 1026,5 hPa 0,0 l/m 2 min 0 min 125 W/m 12,6 km/h (3 Bft) 97,87 %
02.12.2015 13:56 11,3 C 12,8 C 10,6 C 77 % 0 lf 1026,4 hPa 0,0 l/m 2 min 0 min 123 W/m 18,8 km/h (3 Bft) 95,74 %
02.12.2015 13:58 11,3 C 13,3 C 10,6 C 77 % 0 lf 1026,3 hPa 0,0 l/m 2 min 0 min 128 W/m 14,6 km/h (3 Bft) 97,87 %
02.12.2015 14:00 11,3 C 13,3 C 10,6 C 77 % 0 lf 1026,5 hPa 0,0 l/m 2 min 0 min 142 W/m 16,7 km/h (3 Bft) 97,87 %
02.12.2015 14:02 11,4 C 13,3 C 10,6 C 77 % 0 lf 1026,5 hPa 0,0 l/m 2 min 0 min 145 W/m 16,7 km/h (3 Bft) 95,45 %
02.12.2015 14:04 11,4 C 13,3 C 10,6 C 77 % 0 lf 1026,5 hPa 0,0 l/m 2 min 0 min 148 W/m 23,0 km/h (4 Bft) 97,87 %
02.12.2015 14:06 11,4 C 13,3 C 10,6 C 76 % 0 lf 1026,5 hPa 0,0 l/m 2 min 0 min 138 W/m 20,9 km/h (4 Bft) 97,87 %
02.12.2015 14:08 11,4 C 12,8 C 10,6 C 76 % 0 lf 1026,5 hPa 0,0 l/m 2 min 0 min 125 W/m 25,1 km/h (4 Bft) 95,74 %
02.12.2015 14:10 11,4 C 12,8 C 10,6 C 76 % 0 lf 1026,5 hPa 0,0 l/m 2 min 0 min 118 W/m 23,0 km/h (4 Bft) 97,83 %
02.12.2015 14:12 11,4 C 12,8 C 10,6 C 76 % 0 lf 1026,5 hPa 0,0 l/m 2 min 0 min 116 W/m 23,0 km/h (4 Bft) 95,74 %
02.12.2015 14:14 11,4 C 12,2 C 10,0 C 76 % 0 lf 1026,5 hPa 0,0 l/m 0 min 0 min 108 W/m 25,1 km/h (4 Bft) 95,74 %
02.12.2015 14:16 11,5 C 12,2 C 10,0 C 76 % 0 lf 1026,6 hPa 0,0 l/m 0 min 0 min 106 W/m 29,3 km/h (5 Bft) 95,74 %
02.12.2015 14:18 11,5 C 12,8 C 10,0 C 76 % 0 lf 1026,5 hPa 0,0 l/m 2 min 0 min 111 W/m 20,9 km/h (4 Bft) 95,74 %
02.12.2015 14:20 11,5 C 12,8 C 10,0 C 76 % 0 lf 1026,5 hPa 0,0 l/m 0 min 0 min 107 W/m 16,7 km/h (3 Bft) 93,62 %
02.12.2015 14:22 11,5 C 12,8 C 10,6 C 76 % 0 lf 1026,5 hPa 0,0 l/m 0 min 0 min 105 W/m 18,8 km/h (3 Bft) 97,83 %
02.12.2015 14:24 11,5 C 12,8 C 10,6 C 76 % 0 lf 1026,4 hPa 0,0 l/m 0 min 0 min 101 W/m 16,7 km/h (3 Bft) 97,87 %
02.12.2015 14:26 11,5 C 12,8 C 10,6 C 76 % 0 lf 1026,4 hPa 0,0 l/m 0 min 0 min 100 W/m 14,6 km/h (3 Bft) 95,74 %
02.12.2015 14:28 11,5 C 12,2 C 10,0 C 76 % 0 lf 1026,5 hPa 0,0 l/m 2 min 0 min 104 W/m 18,8 km/h (3 Bft) 95,74 %
02.12.2015 14:30 11,5 C 12,2 C 10,0 C 76 % 0 lf 1026,5 hPa 0,0 l/m 0 min 0 min 97 W/m 20,9 km/h (4 Bft) 97,87 %
02.12.2015 14:32 11,5 C 12,2 C 10,6 C 75 % 0 lf 1026,5 hPa 0,0 l/m 0 min 0 min 94 W/m 16,7 km/h (3 Bft) 97,87 %
02.12.2015 14:34 11,5 C 12,2 C 10,0 C 76 % 0 lf 1026,5 hPa 0,0 l/m 0 min 0 min 90 W/m 20,9 km/h (4 Bft) 97,83 %
02.12.2015 14:36 11,5 C 12,2 C 10,0 C 75 % 0 lf 1026,5 hPa 0,0 l/m 0 min 0 min 89 W/m 16,7 km/h (3 Bft) 95,74 %
02.12.2015 14:38 11,5 C 12,2 C 10,0 C 75 % 0 lf 1026,4 hPa 0,0 l/m 0 min 0 min 90 W/m 14,6 km/h (3 Bft) 93,62 %
02.12.2015 14:40 11,5 C 12,2 C 10,0 C 75 % 0 lf 1026,4 hPa 0,0 l/m 0 min 0 min 90 W/m 14,6 km/h (3 Bft) 85,11 %
02.12.2015 14:42 11,6 C 12,2 C 10,0 C 76 % 0 lf 1026,4 hPa 0,0 l/m 0 min 0 min 88 W/m 14,6 km/h (3 Bft) 93,62 %
02.12.2015 14:44 11,6 C 12,2 C 10,0 C 76 % 0 lf 1026,4 hPa 0,0 l/m 0 min 0 min 84 W/m 20,9 km/h (4 Bft) 95,74 %
02.12.2015 14:46 11,5 C 12,2 C 10,0 C 75 % 0 lf 1026,3 hPa 0,0 l/m 0 min 0 min 78 W/m 23,0 km/h (4 Bft) 95,65 %
02.12.2015 14:48 11,5 C 12,2 C 10,0 C 75 % 0 lf 1026,3 hPa 0,0 l/m 0 min 0 min 74 W/m 20,9 km/h (4 Bft) 93,62 %
02.12.2015 14:50 11,5 C 12,2 C 10,0 C 75 % 0 lf 1026,3 hPa 0,0 l/m 0 min 0 min 76 W/m 20,9 km/h (4 Bft) 95,74 %
02.12.2015 14:52 11,5 C 12,2 C 10,0 C 75 % 0 lf 1026,3 hPa 0,0 l/m 0 min 0 min 75 W/m 16,7 km/h (3 Bft) 97,87 %
02.12.2015 14:54 11,5 C 12,2 C 10,0 C 75 % 0 lf 1026,3 hPa 0,0 l/m 0 min 0 min 81 W/m 14,6 km/h (3 Bft) 95,74 %
02.12.2015 14:56 11,5 C 12,2 C 10,0 C 76 % 0 lf 1026,3 hPa 0,0 l/m 0 min 0 min 78 W/m 14,6 km/h (3 Bft) 95,65 %
02.12.2015 14:58 11,5 C 12,2 C 10,0 C 76 % 0 lf 1026,4 hPa 0,0 l/m 0 min 0 min 79 W/m 25,1 km/h (4 Bft) 95,74 %
02.12.2015 15:00 11,5 C 12,2 C 10,0 C 76 % 0 lf 1026,3 hPa 0,0 l/m 2 min 0 min 97 W/m 20,9 km/h (4 Bft) 93,62 %
02.12.2015 15:02 11,5 C 12,2 C 10,0 C 76 % 0 lf 1026,3 hPa 0,0 l/m 2 min 0 min 86 W/m 14,6 km/h (3 Bft) 95,92 %
02.12.2015 15:04 11,5 C 12,2 C 10,0 C 76 % 0 lf 1026,2 hPa 0,0 l/m 2 min 0 min 80 W/m 16,7 km/h (3 Bft) 95,74 %
02.12.2015 15:06 11,4 C 12,2 C 9,4 C 76 % 0 lf 1026,2 hPa 0,0 l/m 0 min 0 min 72 W/m 23,0 km/h (4 Bft) 93,62 %
02.12.2015 15:08 11,4 C 12,2 C 9,4 C 76 % 0 lf 1026,2 hPa 0,0 l/m 0 min 0 min 63 W/m 14,6 km/h (3 Bft) 95,74 %
02.12.2015 15:10 11,4 C 12,2 C 9,4 C 76 % 0 lf 1026,2 hPa 0,0 l/m 2 min 0 min 77 W/m 14,6 km/h (3 Bft) 95,74 %
02.12.2015 15:12 11,4 C 12,2 C 9,4 C 76 % 0 lf 1026,3 hPa 0,0 l/m 0 min 0 min 60 W/m 14,6 km/h (3 Bft) 93,48 %
02.12.2015 15:14 11,4 C 12,2 C 9,4 C 76 % 0 lf 1026,2 hPa 0,0 l/m 2 min 0 min 78 W/m 14,6 km/h (3 Bft) 95,74 %
02.12.2015 15:16 11,4 C 11,7 C 9,4 C 76 % 0 lf 1026,2 hPa 0,0 l/m 2 min 0 min 68 W/m 18,8 km/h (3 Bft) 95,74 %
02.12.2015 15:18 11,4 C 11,7 C 9,4 C 76 % 0 lf 1026,2 hPa 0,0 l/m 0 min 0 min 61 W/m 18,8 km/h (3 Bft) 93,62 %
02.12.2015 15:20 11,3 C 11,7 C 9,4 C 76 % 0 lf 1026,1 hPa 0,0 l/m 0 min 0 min 53 W/m 14,6 km/h (3 Bft) 95,74 %
02.12.2015 15:22 11,3 C 11,7 C 9,4 C 76 % 0 lf 1026,2 hPa 0,0 l/m 0 min 0 min 48 W/m 10,5 km/h (2 Bft) 93,62 %
02.12.2015 15:24 11,3 C 11,7 C 9,4 C 76 % 0 lf 1026,2 hPa 0,0 l/m 0 min 0 min 45 W/m 23,0 km/h (4 Bft) 93,48 %
02.12.2015 15:26 11,3 C 11,7 C 9,4 C 76 % 0 lf 1026,1 hPa 0,0 l/m 0 min 0 min 42 W/m 14,6 km/h (3 Bft) 95,74 %
02.12.2015 15:28 11,3 C 11,7 C 9,4 C 76 % 0 lf 1026,1 hPa 0,0 l/m 0 min 0 min 39 W/m 16,7 km/h (3 Bft) 95,74 %
02.12.2015 15:30 11,3 C 11,7 C 9,4 C 76 % 0 lf 1026,2 hPa 0,0 l/m 0 min 0 min 37 W/m 14,6 km/h (3 Bft) 95,74 %
02.12.2015 15:32 11,3 C 11,7 C 9,4 C 76 % 0 lf 1026,1 hPa 0,0 l/m 0 min 0 min 35 W/m 20,9 km/h (4 Bft) 95,74 %
02.12.2015 15:34 11,2 C 11,7 C 9,4 C 76 % 0 lf 1026,2 hPa 0,0 l/m 0 min 0 min 35 W/m 20,9 km/h (4 Bft) 91,49 %
02.12.2015 15:36 11,2 C 11,1 C 9,4 C 76 % 0 lf 1026,2 hPa 0,0 l/m 0 min 0 min 36 W/m 18,8 km/h (3 Bft) 93,48 %
02.12.2015 15:38 11,2 C 11,1 C 9,4 C 76 % 0 lf 1026,2 hPa 0,0 l/m 0 min 0 min 41 W/m 12,6 km/h (3 Bft) 97,87 %
02.12.2015 15:40 11,2 C 11,1 C 9,4 C 76 % 0 lf 1026,2 hPa 0,0 l/m 2 min 0 min 46 W/m 14,6 km/h (3 Bft) 95,74 %
02.12.2015 15:42 11,2 C 11,7 C 9,4 C 76 % 0 lf 1026,2 hPa 0,0 l/m 2 min 0 min 45 W/m 14,6 km/h (3 Bft) 95,74 %
02.12.2015 15:44 11,2 C 11,7 C 8,9 C 76 % 0 lf 1026,2 hPa 0,0 l/m 2 min 0 min 45 W/m 14,6 km/h (3 Bft) 97,87 %
02.12.2015 15:46 11,2 C 11,7 C 8,9 C 77 % 0 lf 1026,2 hPa 0,0 l/m 2 min 0 min 42 W/m 14,6 km/h (3 Bft) 95,65 %
02.12.2015 15:48 11,2 C 11,1 C 8,9 C 77 % 0 lf 1026,3 hPa 0,0 l/m 2 min 0 min 40 W/m 14,6 km/h (3 Bft) 93,62 %
02.12.2015 15:50 11,1 C 11,1 C 8,9 C 77 % 0 lf 1026,2 hPa 0,0 l/m 2 min 0 min 37 W/m 16,7 km/h (3 Bft) 95,74 %
02.12.2015 15:52 11,1 C 11,1 C 9,4 C 77 % 0 lf 1026,2 hPa 0,0 l/m 0 min 0 min 32 W/m 16,7 km/h (3 Bft) 97,87 %
02.12.2015 15:54 11,1 C 11,1 C 8,9 C 77 % 0 lf 1026,2 hPa 0,0 l/m 0 min 0 min 28 W/m 18,8 km/h (3 Bft) 97,87 %
02.12.2015 15:56 11,1 C 11,1 C 8,9 C 77 % 0 lf 1026,2 hPa 0,0 l/m 0 min 0 min 27 W/m 20,9 km/h (4 Bft) 100,00 %
02.12.2015 15:58 11,1 C 11,1 C 8,9 C 77 % 0 lf 1026,2 hPa 0,0 l/m 0 min 0 min 25 W/m 12,6 km/h (3 Bft) 97,83 %
02.12.2015 16:00 11,1 C 11,1 C 8,9 C 77 % 0 lf 1026,2 hPa 0,0 l/m 0 min 0 min 23 W/m 12,6 km/h (3 Bft) 97,87 %
02.12.2015 16:02 11,0 C 11,1 C 8,9 C 77 % 0 lf 1026,2 hPa 0,0 l/m 2 min 0 min 23 W/m 12,6 km/h (3 Bft) 97,87 %
02.12.2015 16:04 11,0 C 10,6 C 8,9 C 77 % 0 lf 1026,2 hPa 0,0 l/m 2 min 0 min 22 W/m 8,4 km/h (2 Bft) 97,87 %
02.12.2015 16:06 10,9 C 10,6 C 8,9 C 77 % 0 lf 1026,2 hPa 0,0 l/m 2 min 0 min 21 W/m 23,0 km/h (4 Bft) 97,87 %
02.12.2015 16:08 10,9 C 10,6 C 8,9 C 77 % 0 lf 1026,2 hPa 0,0 l/m 2 min 0 min 19 W/m 18,8 km/h (3 Bft) 100,00 %
02.12.2015 16:10 10,9 C 11,1 C 8,9 C 77 % 0 lf 1026,2 hPa 0,0 l/m 0 min 0 min 18 W/m 20,9 km/h (4 Bft) 95,65 %
02.12.2015 16:12 10,8 C 10,6 C 8,9 C 77 % 0 lf 1026,2 hPa 0,0 l/m 0 min 0 min 15 W/m 20,9 km/h (4 Bft) 100,00 %
02.12.2015 16:14 10,8 C 10,6 C 8,9 C 77 % 0 lf 1026,2 hPa 0,0 l/m 0 min 0 min 16 W/m 20,9 km/h (4 Bft) 100,00 %
02.12.2015 16:16 10,8 C 10,6 C 8,9 C 77 % 0 lf 1026,2 hPa 0,0 l/m 0 min 0 min 14 W/m 10,5 km/h (2 Bft) 93,62 %
02.12.2015 16:18 10,8 C 10,6 C 8,9 C 77 % 0 lf 1026,3 hPa 0,0 l/m 0 min 0 min 13 W/m 18,8 km/h (3 Bft) 95,74 %
02.12.2015 16:20 10,8 C 10,6 C 8,9 C 78 % 0 lf 1026,3 hPa 0,0 l/m 0 min 0 min 12 W/m 20,9 km/h (4 Bft) 97,87 %
02.12.2015 16:22 10,8 C 10,6 C 8,9 C 78 % 0 lf 1026,4 hPa 0,0 l/m 0 min 0 min 11 W/m 14,6 km/h (3 Bft) 95,65 %
02.12.2015 16:24 10,7 C 10,6 C 8,9 C 78 % 0 lf 1026,5 hPa 0,0 l/m 0 min 0 min 10 W/m 10,5 km/h (2 Bft) 97,87 %
02.12.2015 16:26 10,7 C 10,6 C 8,9 C 78 % 0 lf 1026,4 hPa 0,0 l/m 0 min 0 min 9 W/m 12,6 km/h (3 Bft) 97,87 %
02.12.2015 16:28 10,7 C 10,6 C 8,9 C 78 % 0 lf 1026,5 hPa 0,0 l/m 0 min 0 min 7 W/m 16,7 km/h (3 Bft) 93,62 %
02.12.2015 16:30 10,7 C 10,6 C 8,9 C 78 % 0 lf 1026,5 hPa 0,0 l/m 0 min 0 min 7 W/m 16,7 km/h (3 Bft) 93,62 %
02.12.2015 16:32 10,7 C 10,6 C 8,3 C 78 % 0 lf 1026,4 hPa 0,0 l/m 0 min 0 min 5 W/m 14,6 km/h (3 Bft) 95,74 %
02.12.2015 16:34 10,6 C 10,6 C 8,3 C 78 % 0 lf 1026,4 hPa 0,0 l/m 0 min 0 min 5 W/m 10,5 km/h (2 Bft) 97,83 %
02.12.2015 16:36 10,6 C 10,0 C 8,3 C 78 % 0 lf 1026,5 hPa 0,0 l/m 0 min 0 min 5 W/m 12,6 km/h (3 Bft) 93,62 %
02.12.2015 16:38 10,6 C 10,0 C 8,3 C 78 % 0 lf 1026,5 hPa 0,0 l/m 0 min 0 min 5 W/m 10,5 km/h (2 Bft) 95,74 %
02.12.2015 16:40 10,6 C 10,0 C 8,3 C 79 % 0 lf 1026,5 hPa 0,0 l/m 0 min 0 min 1 W/m 16,7 km/h (3 Bft) 97,87 %
02.12.2015 16:43 10,5 C 10,0 C 8,3 C 78 % 0 lf 1026,5 hPa 0,0 l/m 0 min 0 min 0 W/m 20,9 km/h (4 Bft) 97,14 %
02.12.2015 16:44 10,5 C 10,0 C 8,3 C 78 % 0 lf 1026,5 hPa 0,0 l/m 0 min 0 min 0 W/m 14,6 km/h (3 Bft) 87,50 %
02.12.2015 16:46 10,4 C 10,0 C 8,3 C 79 % 0 lf 1026,5 hPa 0,0 l/m 0 min 0 min 0 W/m 16,7 km/h (3 Bft) 97,83 %
02.12.2015 16:47 10,4 C 10,0 C 8,3 C 79 % 0 lf 1026,5 hPa 0,0 l/m 0 min 0 min 0 W/m 10,5 km/h (2 Bft) 100,00 %
02.12.2015 16:50 10,4 C 10,0 C 8,3 C 79 % 0 lf 1026,4 hPa 0,0 l/m 0 min 0 min 0 W/m 20,9 km/h (4 Bft) 100,00 %
02.12.2015 16:51 10,4 C 10,0 C 8,3 C 79 % 0 lf 1026,5 hPa 0,0 l/m 0 min 0 min 0 W/m 16,7 km/h (3 Bft) 95,65 %
02.12.2015 16:52 10,3 C 10,0 C 8,3 C 79 % 0 lf 1026,4 hPa 0,0 l/m 0 min 0 min 0 W/m 16,7 km/h (3 Bft) 95,65 %
02.12.2015 16:53 10,3 C 10,0 C 8,3 C 79 % 0 lf 1026,4 hPa 0,0 l/m 0 min 0 min 0 W/m 16,7 km/h (3 Bft) 100,00 %
02.12.2015 16:54 10,3 C 10,0 C 7,8 C 79 % 0 lf 1026,4 hPa 0,0 l/m 0 min 0 min 0 W/m 18,8 km/h (3 Bft) 100,00 %
02.12.2015 16:55 10,3 C 10,0 C 7,8 C 79 % 0 lf 1026,4 hPa 0,0 l/m 0 min 0 min 0 W/m 16,7 km/h (3 Bft) 100,00 %
02.12.2015 16:58 10,2 C 10,0 C 7,8 C 79 % 0 lf 1026,4 hPa 0,0 l/m 0 min 0 min 0 W/m 14,6 km/h (3 Bft) 97,92 %
02.12.2015 17:00 10,2 C 10,0 C 7,8 C 79 % 0 lf 1026,4 hPa 0,0 l/m 0 min 0 min 0 W/m 14,6 km/h (3 Bft) 97,87 %
02.12.2015 17:01 10,2 C 10,0 C 7,8 C 79 % 0 lf 1026,5 hPa 0,0 l/m 0 min 0 min 0 W/m 16,7 km/h (3 Bft) 95,65 %
02.12.2015 17:02 10,2 C 10,0 C 7,8 C 79 % 0 lf 1026,4 hPa 0,0 l/m 0 min 0 min 0 W/m 16,7 km/h (3 Bft) 100,00 %
02.12.2015 17:03 10,2 C 10,0 C 7,8 C 79 % 0 lf 1026,5 hPa 0,0 l/m 0 min 0 min 0 W/m 14,6 km/h (3 Bft) 98,31 %
02.12.2015 17:04 10,2 C 10,0 C 7,8 C 79 % 0 lf 1026,5 hPa 0,0 l/m 0 min 0 min 0 W/m 12,6 km/h (3 Bft) 100,00 %
02.12.2015 17:05 10,1 C 10,0 C 7,8 C 79 % 0 lf 1026,4 hPa 0,0 l/m 0 min 0 min 0 W/m 16,7 km/h (3 Bft) 95,65 %
02.12.2015 17:06 10,1 C 10,0 C 7,8 C 79 % 0 lf 1026,4 hPa 0,0 l/m 0 min 0 min 0 W/m 18,8 km/h (3 Bft) 100,00 %
02.12.2015 17:07 10,1 C 10,0 C 7,8 C 79 % 0 lf 1026,5 hPa 0,0 l/m 0 min 0 min 0 W/m 14,6 km/h (3 Bft) 100,00 %
02.12.2015 17:08 10,1 C 10,0 C 7,8 C 79 % 0 lf 1026,5 hPa 0,0 l/m 0 min 0 min 0 W/m 14,6 km/h (3 Bft) 100,00 %
02.12.2015 17:10 10,1 C 10,0 C 7,8 C 79 % 0 lf 1026,5 hPa 0,0 l/m 0 min 0 min 0 W/m 12,6 km/h (3 Bft) 95,45 %
02.12.2015 17:11 10,1 C 10,0 C 7,8 C 79 % 0 lf 1026,6 hPa 0,0 l/m 0 min 0 min 0 W/m 25,1 km/h (4 Bft) 100,00 %
02.12.2015 17:12 10,1 C 10,0 C 7,8 C 80 % 0 lf 1026,5 hPa 0,0 l/m 0 min 0 min 0 W/m 23,0 km/h (4 Bft) 100,00 %
02.12.2015 17:13 10,0 C 10,0 C 7,8 C 80 % 0 lf 1026,5 hPa 0,0 l/m 0 min 0 min 0 W/m 14,6 km/h (3 Bft) 95,65 %
02.12.2015 17:14 10,0 C 10,0 C 7,8 C 80 % 0 lf 1026,5 hPa 0,0 l/m 0 min 0 min 0 W/m 8,4 km/h (2 Bft) 100,00 %
02.12.2015 17:15 10,0 C 10,0 C 7,8 C 80 % 0 lf 1026,5 hPa 0,0 l/m 0 min 0 min 0 W/m 14,6 km/h (3 Bft) 91,30 %
02.12.2015 17:16 10,0 C 9,4 C 7,8 C 80 % 0 lf 1026,5 hPa 0,0 l/m 0 min 0 min 0 W/m 10,5 km/h (2 Bft) 96,15 %
02.12.2015 17:18 10,0 C 9,4 C 7,8 C 80 % 0 lf 1026,5 hPa 0,0 l/m 0 min 0 min 0 W/m 16,7 km/h (3 Bft) 94,83 %
02.12.2015 17:20 9,9 C 9,4 C 7,8 C 80 % 0 lf 1026,5 hPa 0,0 l/m 0 min 0 min 0 W/m 18,8 km/h (3 Bft) 97,87 %
02.12.2015 17:23 9,9 C 9,4 C 7,8 C 80 % 0 lf 1026,5 hPa 0,0 l/m 0 min 0 min 0 W/m 20,9 km/h (4 Bft) 97,14 %
02.12.2015 17:24 9,9 C 9,4 C 7,8 C 80 % 0 lf 1026,5 hPa 0,0 l/m 0 min 0 min 0 W/m 14,6 km/h (3 Bft) 95,83 %
02.12.2015 17:26 9,9 C 9,4 C 7,8 C 80 % 0 lf 1026,5 hPa 0,0 l/m 0 min 0 min 0 W/m 23,0 km/h (4 Bft) 95,74 %
02.12.2015 17:28 9,8 C 9,4 C 7,8 C 80 % 0 lf 1026,5 hPa 0,0 l/m 0 min 0 min 0 W/m 14,6 km/h (3 Bft) 90,00 %
02.12.2015 17:30 9,8 C 9,4 C 7,8 C 80 % 0 lf 1026,5 hPa 0,0 l/m 0 min 0 min 0 W/m 20,9 km/h (4 Bft) 92,86 %
02.12.2015 17:31 9,8 C 9,4 C 7,8 C 80 % 0 lf 1026,6 hPa 0,0 l/m 0 min 0 min 0 W/m 12,6 km/h (3 Bft) 100,00 %
02.12.2015 17:32 9,8 C 9,4 C 7,8 C 80 % 0 lf 1026,6 hPa 0,0 l/m 0 min 0 min 0 W/m 14,6 km/h (3 Bft) 95,65 %
02.12.2015 17:34 9,7 C 9,4 C 7,8 C 80 % 0 lf 1026,6 hPa 0,0 l/m 0 min 0 min 0 W/m 10,5 km/h (2 Bft) 90,91 %
02.12.2015 17:36 9,7 C 9,4 C 7,8 C 80 % 0 lf 1026,7 hPa 0,0 l/m 0 min 0 min 0 W/m 23,0 km/h (4 Bft) 94,92 %
02.12.2015 17:38 9,7 C 9,4 C 7,8 C 80 % 0 lf 1026,6 hPa 0,0 l/m 0 min 0 min 0 W/m 16,7 km/h (3 Bft) 93,62 %
02.12.2015 17:40 9,7 C 9,4 C 7,8 C 80 % 0 lf 1026,5 hPa 0,0 l/m 0 min 0 min 0 W/m 16,7 km/h (3 Bft) 94,44 %
02.12.2015 17:43 9,6 C 9,4 C 7,8 C 80 % 0 lf 1026,6 hPa 0,0 l/m 0 min 0 min 0 W/m 18,8 km/h (3 Bft) 92,86 %
02.12.2015 17:44 9,6 C 9,4 C 7,8 C 80 % 0 lf 1026,6 hPa 0,0 l/m 0 min 0 min 0 W/m 12,6 km/h (3 Bft) 95,83 %
02.12.2015 17:48 9,6 C 9,4 C 7,8 C 81 % 0 lf 1026,6 hPa 0,0 l/m 0 min 0 min 0 W/m 20,9 km/h (4 Bft) 92,47 %
02.12.2015 17:49 9,6 C 9,4 C 7,8 C 80 % 0 lf 1026,7 hPa 0,0 l/m 0 min 0 min 0 W/m 20,9 km/h (4 Bft) 95,83 %
02.12.2015 17:50 9,6 C 9,4 C 7,8 C 80 % 0 lf 1026,7 hPa 0,0 l/m 0 min 0 min 0 W/m 16,7 km/h (3 Bft) 91,30 %
02.12.2015 17:54 9,5 C 9,4 C 7,2 C 80 % 0 lf 1026,7 hPa 0,0 l/m 0 min 0 min 0 W/m 16,7 km/h (3 Bft) 92,16 %
02.12.2015 17:55 9,5 C 9,4 C 7,2 C 80 % 0 lf 1026,7 hPa 0,0 l/m 0 min 0 min 0 W/m 27,2 km/h (4 Bft) 91,30 %
02.12.2015 17:56 9,5 C 9,4 C 7,2 C 80 % 0 lf 1026,7 hPa 0,0 l/m 0 min 0 min 0 W/m 23,0 km/h (4 Bft) 95,65 %
02.12.2015 17:57 9,5 C 9,4 C 7,2 C 81 % 0 lf 1026,7 hPa 0,0 l/m 0 min 0 min 0 W/m 14,6 km/h (3 Bft) 95,65 %
02.12.2015 17:58 9,4 C 9,4 C 7,2 C 81 % 0 lf 1026,7 hPa 0,0 l/m 0 min 0 min 0 W/m 14,6 km/h (3 Bft) 86,96 %
02.12.2015 18:00 9,4 C 8,9 C 7,2 C 81 % 0 lf 1026,8 hPa 0,0 l/m 0 min 0 min 0 W/m 20,9 km/h (4 Bft) 93,55 %
02.12.2015 18:02 9,4 C 9,4 C 7,2 C 81 % 0 lf 1026,8 hPa 0,0 l/m 0 min 0 min 0 W/m 23,0 km/h (4 Bft) 93,62 %
02.12.2015 18:06 9,4 C 8,9 C 7,2 C 81 % 0 lf 1026,8 hPa 0,0 l/m 0 min 0 min 0 W/m 20,9 km/h (4 Bft) 93,62 %
02.12.2015 18:07 9,4 C 8,9 C 7,2 C 81 % 0 lf 1026,8 hPa 0,0 l/m 0 min 0 min 0 W/m 14,6 km/h (3 Bft) 95,65 %
02.12.2015 18:08 9,3 C 8,9 C 7,2 C 81 % 0 lf 1026,8 hPa 0,0 l/m 0 min 0 min 0 W/m 8,4 km/h (2 Bft) 96,03 %
02.12.2015 18:10 9,3 C 8,9 C 7,2 C 81 % 0 lf 1026,8 hPa 0,0 l/m 0 min 0 min 0 W/m 18,8 km/h (3 Bft) 91,67 %
02.12.2015 18:12 9,3 C 8,9 C 7,2 C 81 % 0 lf 1026,8 hPa 0,0 l/m 0 min 0 min 0 W/m 23,0 km/h (4 Bft) 95,65 %
02.12.2015 18:14 9,3 C 8,9 C 7,2 C 81 % 0 lf 1026,8 hPa 0,0 l/m 0 min 0 min 0 W/m 20,9 km/h (4 Bft) 95,74 %
02.12.2015 18:16 9,3 C 8,9 C 7,2 C 81 % 0 lf 1026,9 hPa 0,0 l/m 0 min 0 min 0 W/m 18,8 km/h (3 Bft) 87,23 %
02.12.2015 18:18 9,2 C 8,9 C 7,2 C 81 % 0 lf 1026,9 hPa 0,0 l/m 0 min 0 min 0 W/m 27,2 km/h (4 Bft) 93,62 %
02.12.2015 18:20 9,2 C 8,9 C 7,2 C 81 % 0 lf 1026,9 hPa 0,0 l/m 0 min 0 min 0 W/m 18,8 km/h (3 Bft) 93,62 %
02.12.2015 18:22 9,2 C 8,9 C 7,2 C 81 % 0 lf 1026,9 hPa 0,0 l/m 0 min 0 min 0 W/m 18,8 km/h (3 Bft) 95,74 %
02.12.2015 18:24 9,2 C 8,9 C 7,2 C 81 % 0 lf 1026,9 hPa 0,0 l/m 0 min 0 min 0 W/m 18,8 km/h (3 Bft) 89,13 %
02.12.2015 18:26 9,2 C 8,9 C 7,2 C 81 % 0 lf 1026,9 hPa 0,0 l/m 0 min 0 min 0 W/m 20,9 km/h (4 Bft) 95,74 %
02.12.2015 18:28 9,2 C 8,9 C 7,2 C 81 % 0 lf 1026,8 hPa 0,0 l/m 0 min 0 min 0 W/m 18,8 km/h (3 Bft) 95,74 %
02.12.2015 18:30 9,1 C 8,9 C 7,2 C 81 % 0 lf 1026,8 hPa 0,0 l/m 0 min 0 min 0 W/m 16,7 km/h (3 Bft) 93,62 %
02.12.2015 18:32 9,1 C 8,9 C 7,2 C 81 % 0 lf 1026,9 hPa 0,0 l/m 0 min 0 min 0 W/m 27,2 km/h (4 Bft) 93,75 %
02.12.2015 18:34 9,1 C 8,9 C 7,2 C 81 % 0 lf 1026,9 hPa 0,0 l/m 0 min 0 min 0 W/m 14,6 km/h (3 Bft) 91,49 %
02.12.2015 18:36 9,0 C 8,3 C 7,2 C 81 % 0 lf 1026,9 hPa 0,0 l/m 0 min 0 min 0 W/m 14,6 km/h (3 Bft) 95,65 %
02.12.2015 18:38 9,0 C 8,9 C 7,2 C 81 % 0 lf 1027,0 hPa 0,0 l/m 0 min 0 min 0 W/m 20,9 km/h (4 Bft) 95,74 %
02.12.2015 18:40 8,9 C 8,9 C 7,2 C 82 % 0 lf 1027,0 hPa 0,0 l/m 0 min 0 min 0 W/m 25,1 km/h (4 Bft) 95,74 %
02.12.2015 18:42 8,9 C 8,9 C 7,2 C 82 % 0 lf 1027,0 hPa 0,0 l/m 0 min 0 min 0 W/m 23,0 km/h (4 Bft) 93,62 %
02.12.2015 18:44 8,9 C 8,3 C 6,7 C 82 % 0 lf 1027,0 hPa 0,0 l/m 0 min 0 min 0 W/m 18,8 km/h (3 Bft) 100,00 %
02.12.2015 18:46 8,9 C 8,9 C 6,7 C 82 % 0 lf 1027,0 hPa 0,0 l/m 0 min 0 min 0 W/m 23,0 km/h (4 Bft) 100,00 %
02.12.2015 18:48 8,8 C 8,3 C 6,7 C 82 % 0 lf 1027,0 hPa 0,0 l/m 0 min 0 min 0 W/m 18,8 km/h (3 Bft) 97,87 %
02.12.2015 18:50 8,8 C 8,3 C 6,7 C 82 % 0 lf 1027,0 hPa 0,0 l/m 0 min 0 min 0 W/m 18,8 km/h (3 Bft) 97,87 %
02.12.2015 18:52 8,8 C 8,3 C 6,7 C 82 % 0 lf 1027,0 hPa 0,0 l/m 0 min 0 min 0 W/m 18,8 km/h (3 Bft) 97,87 %
02.12.2015 18:54 8,8 C 8,3 C 6,7 C 82 % 0 lf 1027,0 hPa 0,0 l/m 0 min 0 min 0 W/m 18,8 km/h (3 Bft) 100,00 %
02.12.2015 18:56 8,7 C 8,3 C 6,7 C 82 % 0 lf 1027,0 hPa 0,0 l/m 0 min 0 min 0 W/m 16,7 km/h (3 Bft) 100,00 %
02.12.2015 18:58 8,7 C 8,3 C 6,7 C 82 % 0 lf 1027,0 hPa 0,0 l/m 0 min 0 min 0 W/m 20,9 km/h (4 Bft) 100,00 %
02.12.2015 19:00 8,7 C 8,3 C 6,7 C 82 % 0 lf 1027,1 hPa 0,0 l/m 0 min 0 min 0 W/m 20,9 km/h (4 Bft) 100,00 %
02.12.2015 19:02 8,7 C 8,3 C 6,7 C 82 % 0 lf 1027,1 hPa 0,0 l/m 0 min 0 min 0 W/m 12,6 km/h (3 Bft) 100,00 %
02.12.2015 19:04 8,7 C 8,3 C 6,7 C 82 % 0 lf 1027,1 hPa 0,0 l/m 0 min 0 min 0 W/m 12,6 km/h (3 Bft) 97,87 %
02.12.2015 19:06 8,7 C 8,3 C 6,7 C 82 % 0 lf 1027,1 hPa 0,0 l/m 0 min 0 min 0 W/m 23,0 km/h (4 Bft) 97,83 %
02.12.2015 19:08 8,7 C 8,3 C 6,7 C 82 % 0 lf 1027,1 hPa 0,0 l/m 0 min 0 min 0 W/m 18,8 km/h (3 Bft) 100,00 %
02.12.2015 19:10 8,6 C 8,3 C 6,7 C 82 % 0 lf 1027,1 hPa 0,0 l/m 0 min 0 min 0 W/m 18,8 km/h (3 Bft) 100,00 %
02.12.2015 19:12 8,6 C 8,3 C 6,7 C 82 % 0 lf 1027,1 hPa 0,0 l/m 0 min 0 min 0 W/m 16,7 km/h (3 Bft) 93,62 %
02.12.2015 19:14 8,6 C 8,3 C 6,7 C 82 % 0 lf 1027,1 hPa 0,0 l/m 0 min 0 min 0 W/m 16,7 km/h (3 Bft) 100,00 %
02.12.2015 19:16 8,6 C 8,3 C 6,7 C 82 % 0 lf 1027,1 hPa 0,0 l/m 0 min 0 min 0 W/m 18,8 km/h (3 Bft) 97,87 %
02.12.2015 19:18 8,6 C 8,3 C 6,7 C 82 % 0 lf 1027,2 hPa 0,0 l/m 0 min 0 min 0 W/m 18,8 km/h (3 Bft) 100,00 %
02.12.2015 19:20 8,5 C 8,3 C 6,7 C 82 % 0 lf 1027,1 hPa 0,0 l/m 0 min 0 min 0 W/m 18,8 km/h (3 Bft) 95,74 %
02.12.2015 19:22 8,5 C 8,3 C 6,7 C 82 % 0 lf 1027,2 hPa 0,0 l/m 0 min 0 min 0 W/m 14,6 km/h (3 Bft) 100,00 %
02.12.2015 19:24 8,5 C 8,3 C 6,7 C 83 % 0 lf 1027,2 hPa 0,0 l/m 0 min 0 min 0 W/m 12,6 km/h (3 Bft) 100,00 %
02.12.2015 19:26 8,4 C 7,8 C 6,7 C 83 % 0 lf 1027,2 hPa 0,0 l/m 0 min 0 min 0 W/m 14,6 km/h (3 Bft) 97,87 %
02.12.2015 19:28 8,4 C 8,3 C 6,7 C 83 % 0 lf 1027,2 hPa 0,0 l/m 0 min 0 min 0 W/m 25,1 km/h (4 Bft) 97,87 %
02.12.2015 19:30 8,4 C 8,3 C 6,7 C 83 % 0 lf 1027,2 hPa 0,0 l/m 0 min 0 min 0 W/m 23,0 km/h (4 Bft) 97,83 %
02.12.2015 19:32 8,4 C 7,8 C 6,7 C 83 % 0 lf 1027,2 hPa 0,0 l/m 0 min 0 min 0 W/m 14,6 km/h (3 Bft) 95,74 %
02.12.2015 19:34 8,4 C 7,8 C 6,7 C 83 % 0 lf 1027,2 hPa 0,0 l/m 0 min 0 min 0 W/m 16,7 km/h (3 Bft) 100,00 %
02.12.2015 19:36 8,4 C 7,8 C 6,7 C 83 % 0 lf 1027,3 hPa 0,0 l/m 0 min 0 min 0 W/m 14,6 km/h (3 Bft) 97,87 %
02.12.2015 19:38 8,3 C 7,8 C 6,7 C 83 % 0 lf 1027,3 hPa 0,0 l/m 0 min 0 min 0 W/m 18,8 km/h (3 Bft) 100,00 %
02.12.2015 19:40 8,3 C 8,3 C 6,7 C 83 % 0 lf 1027,3 hPa 0,0 l/m 0 min 0 min 0 W/m 20,9 km/h (4 Bft) 100,00 %
02.12.2015 19:42 8,3 C 8,3 C 6,7 C 83 % 0 lf 1027,2 hPa 0,0 l/m 0 min 0 min 0 W/m 27,2 km/h (4 Bft) 95,65 %
02.12.2015 19:44 8,3 C 8,3 C 6,7 C 83 % 0 lf 1027,2 hPa 0,0 l/m 0 min 0 min 0 W/m 14,6 km/h (3 Bft) 100,00 %
02.12.2015 19:46 8,3 C 8,3 C 6,7 C 83 % 0 lf 1027,2 hPa 0,0 l/m 0 min 0 min 0 W/m 16,7 km/h (3 Bft) 97,87 %
02.12.2015 19:48 8,3 C 8,3 C 6,7 C 84 % 0 lf 1027,3 hPa 0,0 l/m 0 min 0 min 0 W/m 18,8 km/h (3 Bft) 97,87 %
02.12.2015 19:50 8,3 C 8,3 C 6,7 C 84 % 0 lf 1027,2 hPa 0,0 l/m 0 min 0 min 0 W/m 18,8 km/h (3 Bft) 97,87 %
02.12.2015 19:52 8,3 C 8,3 C 7,2 C 84 % 0 lf 1027,2 hPa 0,0 l/m 0 min 0 min 0 W/m 14,6 km/h (3 Bft) 100,00 %
02.12.2015 19:54 8,3 C 8,3 C 7,2 C 84 % 0 lf 1027,1 hPa 0,0 l/m 0 min 0 min 0 W/m 18,8 km/h (3 Bft) 97,83 %
02.12.2015 19:56 8,3 C 8,3 C 7,2 C 84 % 0 lf 1027,2 hPa 0,0 l/m 0 min 0 min 0 W/m 16,7 km/h (3 Bft) 97,87 %
02.12.2015 19:58 8,3 C 8,3 C 7,2 C 84 % 0 lf 1027,1 hPa 0,0 l/m 0 min 0 min 0 W/m 12,6 km/h (3 Bft) 95,74 %
02.12.2015 20:00 8,3 C 8,3 C 7,2 C 84 % 0 lf 1027,1 hPa 0,0 l/m 0 min 0 min 0 W/m 18,8 km/h (3 Bft) 100,00 %
02.12.2015 20:02 8,3 C 8,9 C 7,2 C 84 % 0 lf 1027,2 hPa 0,0 l/m 0 min 0 min 0 W/m 16,7 km/h (3 Bft) 97,14 %
02.12.2015 20:04 8,3 C 8,9 C 7,2 C 84 % 0 lf 1027,3 hPa 0,0 l/m 0 min 0 min 0 W/m 8,4 km/h (2 Bft) 93,62 %
02.12.2015 20:06 8,4 C 8,9 C 7,2 C 84 % 0 lf 1027,2 hPa 0,0 l/m 0 min 0 min 0 W/m 14,6 km/h (3 Bft) 95,74 %
02.12.2015 20:08 8,4 C 8,9 C 7,2 C 84 % 0 lf 1027,2 hPa 0,0 l/m 0 min 0 min 0 W/m 10,5 km/h (2 Bft) 97,87 %
02.12.2015 20:10 8,4 C 8,9 C 7,2 C 84 % 0 lf 1027,2 hPa 0,0 l/m 0 min 0 min 0 W/m 10,5 km/h (2 Bft) 95,65 %
02.12.2015 20:12 8,4 C 8,9 C 7,2 C 84 % 0 lf 1027,1 hPa 0,0 l/m 0 min 0 min 0 W/m 16,7 km/h (3 Bft) 100,00 %
02.12.2015 20:14 8,4 C 8,9 C 7,2 C 84 % 0 lf 1027,1 hPa 0,0 l/m 0 min 0 min 0 W/m 10,5 km/h (2 Bft) 97,87 %
02.12.2015 20:16 8,4 C 8,9 C 7,2 C 84 % 0 lf 1027,1 hPa 0,0 l/m 0 min 0 min 0 W/m 12,6 km/h (3 Bft) 97,87 %
02.12.2015 20:18 8,4 C 8,9 C 7,2 C 84 % 0 lf 1027,1 hPa 0,0 l/m 0 min 0 min 0 W/m 16,7 km/h (3 Bft) 93,62 %
02.12.2015 20:20 8,4 C 8,9 C 7,2 C 84 % 0 lf 1027,1 hPa 0,0 l/m 0 min 0 min 0 W/m 12,6 km/h (3 Bft) 97,83 %
02.12.2015 20:22 8,5 C 8,9 C 7,2 C 84 % 0 lf 1027,1 hPa 0,0 l/m 0 min 0 min 0 W/m 16,7 km/h (3 Bft) 95,74 %
02.12.2015 20:24 8,5 C 8,9 C 7,2 C 83 % 0 lf 1027,0 hPa 0,0 l/m 0 min 0 min 0 W/m 10,5 km/h (2 Bft) 97,87 %
02.12.2015 20:26 8,5 C 8,9 C 7,2 C 83 % 0 lf 1027,1 hPa 0,0 l/m 0 min 0 min 0 W/m 16,7 km/h (3 Bft) 95,74 %
02.12.2015 20:28 8,6 C 8,9 C 7,2 C 83 % 0 lf 1027,1 hPa 0,0 l/m 0 min 0 min 0 W/m 14,6 km/h (3 Bft) 95,74 %
02.12.2015 20:30 8,6 C 8,9 C 7,2 C 83 % 0 lf 1027,1 hPa 0,0 l/m 0 min 0 min 0 W/m 16,7 km/h (3 Bft) 93,62 %
02.12.2015 20:32 8,6 C 8,9 C 7,2 C 83 % 0 lf 1027,1 hPa 0,0 l/m 0 min 0 min 0 W/m 16,7 km/h (3 Bft) 95,65 %
02.12.2015 20:34 8,6 C 8,9 C 7,2 C 83 % 0 lf 1027,1 hPa 0,0 l/m 0 min 0 min 0 W/m 14,6 km/h (3 Bft) 93,62 %
02.12.2015 20:36 8,6 C 8,9 C 7,2 C 83 % 0 lf 1027,1 hPa 0,0 l/m 0 min 0 min 0 W/m 14,6 km/h (3 Bft) 95,74 %
02.12.2015 20:38 8,6 C 8,9 C 7,2 C 83 % 0 lf 1027,1 hPa 0,0 l/m 0 min 0 min 0 W/m 14,6 km/h (3 Bft) 95,74 %
02.12.2015 20:40 8,7 C 8,9 C 7,2 C 83 % 0 lf 1027,1 hPa 0,0 l/m 0 min 0 min 0 W/m 14,6 km/h (3 Bft) 91,49 %
02.12.2015 20:42 8,7 C 8,9 C 7,2 C 83 % 0 lf 1027,1 hPa 0,0 l/m 0 min 0 min 0 W/m 14,6 km/h (3 Bft) 93,62 %
02.12.2015 20:44 8,7 C 8,9 C 7,2 C 83 % 0 lf 1027,1 hPa 0,0 l/m 0 min 0 min 0 W/m 16,7 km/h (3 Bft) 95,65 %
02.12.2015 20:46 8,7 C 8,9 C 7,2 C 83 % 0 lf 1027,0 hPa 0,0 l/m 0 min 0 min 0 W/m 12,6 km/h (3 Bft) 91,49 %
02.12.2015 20:48 8,7 C 8,9 C 7,8 C 82 % 0 lf 1027,0 hPa 0,0 l/m 0 min 0 min 0 W/m 20,9 km/h (4 Bft) 93,62 %
02.12.2015 20:50 8,7 C 8,9 C 7,8 C 82 % 0 lf 1027,0 hPa 0,0 l/m 0 min 0 min 0 W/m 18,8 km/h (3 Bft) 95,74 %
02.12.2015 20:52 8,7 C 8,9 C 7,8 C 82 % 0 lf 1027,0 hPa 0,0 l/m 0 min 0 min 0 W/m 20,9 km/h (4 Bft) 95,74 %
02.12.2015 20:54 8,7 C 8,9 C 7,8 C 82 % 0 lf 1027,0 hPa 0,0 l/m 0 min 0 min 0 W/m 18,8 km/h (3 Bft) 95,74 %
02.12.2015 20:56 8,7 C 8,9 C 7,8 C 82 % 0 lf 1026,9 hPa 0,0 l/m 0 min 0 min 0 W/m 20,9 km/h (4 Bft) 93,48 %
02.12.2015 20:58 8,8 C 8,9 C 7,8 C 82 % 0 lf 1027,0 hPa 0,0 l/m 0 min 0 min 0 W/m 16,7 km/h (3 Bft) 89,36 %
02.12.2015 21:00 8,8 C 8,9 C 7,8 C 82 % 0 lf 1026,9 hPa 0,0 l/m 0 min 0 min 0 W/m 23,0 km/h (4 Bft) 91,49 %
02.12.2015 21:02 8,8 C 8,9 C 7,8 C 82 % 0 lf 1027,0 hPa 0,0 l/m 0 min 0 min 0 W/m 16,7 km/h (3 Bft) 93,62 %
02.12.2015 21:04 8,8 C 8,9 C 7,8 C 82 % 0 lf 1026,9 hPa 0,0 l/m 0 min 0 min 0 W/m 18,8 km/h (3 Bft) 93,62 %
02.12.2015 21:06 8,8 C 9,4 C 7,8 C 82 % 0 lf 1026,9 hPa 0,0 l/m 0 min 0 min 0 W/m 18,8 km/h (3 Bft) 91,49 %
02.12.2015 21:08 8,8 C 9,4 C 7,8 C 82 % 0 lf 1026,9 hPa 0,0 l/m 0 min 0 min 0 W/m 12,6 km/h (3 Bft) 93,48 %
02.12.2015 21:10 8,8 C 9,4 C 7,8 C 82 % 0 lf 1026,9 hPa 0,0 l/m 0 min 0 min 0 W/m 18,8 km/h (3 Bft) 93,62 %
02.12.2015 21:12 8,8 C 9,4 C 7,8 C 82 % 0 lf 1026,9 hPa 0,0 l/m 0 min 0 min 0 W/m 18,8 km/h (3 Bft) 93,62 %
02.12.2015 21:14 8,8 C 9,4 C 7,8 C 81 % 0 lf 1026,9 hPa 0,0 l/m 0 min 0 min 0 W/m 18,8 km/h (3 Bft) 89,36 %
02.12.2015 21:16 8,9 C 9,4 C 7,8 C 81 % 0 lf 1026,9 hPa 0,0 l/m 0 min 0 min 0 W/m 14,6 km/h (3 Bft) 93,62 %
02.12.2015 21:18 8,9 C 9,4 C 7,8 C 81 % 0 lf 1026,9 hPa 0,0 l/m 0 min 0 min 0 W/m 16,7 km/h (3 Bft) 95,65 %
02.12.2015 21:20 8,9 C 9,4 C 7,8 C 81 % 0 lf 1027,0 hPa 0,0 l/m 0 min 0 min 0 W/m 25,1 km/h (4 Bft) 93,62 %
02.12.2015 21:22 8,9 C 9,4 C 7,8 C 81 % 0 lf 1027,0 hPa 0,0 l/m 0 min 0 min 0 W/m 25,1 km/h (4 Bft) 95,74 %
02.12.2015 21:24 8,9 C 9,4 C 7,8 C 81 % 0 lf 1027,0 hPa 0,0 l/m 0 min 0 min 0 W/m 16,7 km/h (3 Bft) 93,62 %
02.12.2015 21:26 8,9 C 9,4 C 7,8 C 81 % 0 lf 1027,0 hPa 0,0 l/m 0 min 0 min 0 W/m 23,0 km/h (4 Bft) 95,74 %
02.12.2015 21:28 8,9 C 9,4 C 7,8 C 81 % 0 lf 1027,0 hPa 0,0 l/m 0 min 0 min 0 W/m 12,6 km/h (3 Bft) 89,36 %
02.12.2015 21:30 9,0 C 9,4 C 7,8 C 81 % 0 lf 1027,0 hPa 0,0 l/m 0 min 0 min 0 W/m 20,9 km/h (4 Bft) 97,83 %
02.12.2015 21:32 9,0 C 9,4 C 7,8 C 81 % 0 lf 1027,0 hPa 0,0 l/m 0 min 0 min 0 W/m 20,9 km/h (4 Bft) 93,62 %
02.12.2015 21:34 9,0 C 9,4 C 7,8 C 81 % 0 lf 1027,1 hPa 0,0 l/m 0 min 0 min 0 W/m 16,7 km/h (3 Bft) 97,87 %
02.12.2015 21:36 9,0 C 9,4 C 7,8 C 81 % 0 lf 1027,0 hPa 0,0 l/m 0 min 0 min 0 W/m 20,9 km/h (4 Bft) 95,74 %
02.12.2015 21:38 9,1 C 9,4 C 7,8 C 81 % 0 lf 1027,0 hPa 0,0 l/m 0 min 0 min 0 W/m 14,6 km/h (3 Bft) 97,87 %
02.12.2015 21:40 9,1 C 9,4 C 7,8 C 81 % 0 lf 1027,0 hPa 0,0 l/m 0 min 0 min 0 W/m 14,6 km/h (3 Bft) 93,62 %
02.12.2015 21:42 9,1 C 9,4 C 7,8 C 81 % 0 lf 1027,0 hPa 0,0 l/m 0 min 0 min 0 W/m 18,8 km/h (3 Bft) 93,48 %
02.12.2015 21:44 9,1 C 9,4 C 7,8 C 81 % 0 lf 1027,1 hPa 0,0 l/m 0 min 0 min 0 W/m 12,6 km/h (3 Bft) 95,74 %
02.12.2015 21:46 9,1 C 9,4 C 7,8 C 80 % 0 lf 1027,1 hPa 0,0 l/m 0 min 0 min 0 W/m 14,6 km/h (3 Bft) 97,87 %
02.12.2015 21:48 9,1 C 9,4 C 7,8 C 80 % 0 lf 1027,1 hPa 0,0 l/m 0 min 0 min 0 W/m 20,9 km/h (4 Bft) 95,74 %
02.12.2015 21:50 9,1 C 9,4 C 7,8 C 80 % 0 lf 1027,1 hPa 0,0 l/m 0 min 0 min 0 W/m 14,6 km/h (3 Bft) 93,62 %
02.12.2015 21:52 9,1 C 9,4 C 7,8 C 80 % 0 lf 1027,1 hPa 0,0 l/m 0 min 0 min 0 W/m 14,6 km/h (3 Bft) 95,74 %
02.12.2015 21:54 9,2 C 9,4 C 7,8 C 80 % 0 lf 1027,1 hPa 0,0 l/m 0 min 0 min 0 W/m 16,7 km/h (3 Bft) 97,83 %
02.12.2015 21:56 9,2 C 9,4 C 7,8 C 80 % 0 lf 1027,1 hPa 0,0 l/m 0 min 0 min 0 W/m 14,6 km/h (3 Bft) 93,62 %
02.12.2015 21:58 9,2 C 9,4 C 7,8 C 80 % 0 lf 1027,1 hPa 0,0 l/m 0 min 0 min 0 W/m 12,6 km/h (3 Bft) 97,87 %
02.12.2015 22:00 9,2 C 9,4 C 7,8 C 80 % 0 lf 1027,1 hPa 0,0 l/m 0 min 0 min 0 W/m 12,6 km/h (3 Bft) 93,62 %
02.12.2015 22:02 9,2 C 9,4 C 7,8 C 80 % 0 lf 1027,1 hPa 0,0 l/m 0 min 0 min 0 W/m 14,6 km/h (3 Bft) 96,23 %
02.12.2015 22:04 9,2 C 9,4 C 7,8 C 80 % 0 lf 1027,1 hPa 0,0 l/m 0 min 0 min 0 W/m 14,6 km/h (3 Bft) 91,49 %
02.12.2015 22:06 9,3 C 9,4 C 7,8 C 80 % 0 lf 1027,1 hPa 0,0 l/m 0 min 0 min 0 W/m 16,7 km/h (3 Bft) 97,83 %
02.12.2015 22:08 9,3 C 9,4 C 7,8 C 80 % 0 lf 1027,2 hPa 0,0 l/m 0 min 0 min 0 W/m 10,5 km/h (2 Bft) 93,62 %
02.12.2015 22:10 9,3 C 9,4 C 7,8 C 80 % 0 lf 1027,1 hPa 0,0 l/m 0 min 0 min 0 W/m 10,5 km/h (2 Bft) 97,87 %
02.12.2015 22:12 9,3 C 9,4 C 7,8 C 80 % 0 lf 1027,2 hPa 0,0 l/m 0 min 0 min 0 W/m 12,6 km/h (3 Bft) 97,87 %
02.12.2015 22:14 9,3 C 9,4 C 7,8 C 80 % 0 lf 1027,2 hPa 0,0 l/m 0 min 0 min 0 W/m 10,5 km/h (2 Bft) 95,74 %
02.12.2015 22:16 9,3 C 9,4 C 7,8 C 80 % 0 lf 1027,3 hPa 0,0 l/m 0 min 0 min 0 W/m 12,6 km/h (3 Bft) 95,74 %
02.12.2015 22:18 9,3 C 9,4 C 7,8 C 80 % 0 lf 1027,3 hPa 0,0 l/m 0 min 0 min 0 W/m 12,6 km/h (3 Bft) 93,48 %
02.12.2015 22:20 9,3 C 9,4 C 7,8 C 80 % 0 lf 1027,3 hPa 0,0 l/m 0 min 0 min 0 W/m 12,6 km/h (3 Bft) 97,87 %
02.12.2015 22:22 9,3 C 9,4 C 7,8 C 80 % 0 lf 1027,3 hPa 0,0 l/m 0 min 0 min 0 W/m 10,5 km/h (2 Bft) 97,87 %
02.12.2015 22:24 9,3 C 9,4 C 7,8 C 80 % 0 lf 1027,3 hPa 0,0 l/m 0 min 0 min 0 W/m 8,4 km/h (2 Bft) 91,49 %
02.12.2015 22:26 9,3 C 9,4 C 7,8 C 80 % 0 lf 1027,3 hPa 0,0 l/m 0 min 0 min 0 W/m 12,6 km/h (3 Bft) 95,74 %
02.12.2015 22:28 9,3 C 9,4 C 7,8 C 80 % 0 lf 1027,3 hPa 0,0 l/m 0 min 0 min 0 W/m 10,5 km/h (2 Bft) 97,87 %
02.12.2015 22:30 9,3 C 9,4 C 7,8 C 80 % 0 lf 1027,3 hPa 0,0 l/m 0 min 0 min 0 W/m 12,6 km/h (3 Bft) 95,65 %
02.12.2015 22:32 9,4 C 9,4 C 7,8 C 80 % 0 lf 1027,3 hPa 0,0 l/m 0 min 0 min 0 W/m 12,6 km/h (3 Bft) 95,83 %
02.12.2015 22:34 9,3 C 9,4 C 7,8 C 80 % 0 lf 1027,3 hPa 0,0 l/m 0 min 0 min 0 W/m 10,5 km/h (2 Bft) 100,00 %
02.12.2015 22:36 9,4 C 9,4 C 7,8 C 79 % 0 lf 1027,3 hPa 0,0 l/m 0 min 0 min 0 W/m 14,6 km/h (3 Bft) 97,87 %
02.12.2015 22:38 9,4 C 9,4 C 7,8 C 79 % 0 lf 1027,3 hPa 0,0 l/m 0 min 0 min 0 W/m 10,5 km/h (2 Bft) 100,00 %
02.12.2015 22:40 9,4 C 9,4 C 7,8 C 80 % 0 lf 1027,3 hPa 0,0 l/m 0 min 0 min 0 W/m 10,5 km/h (2 Bft) 97,87 %
02.12.2015 22:42 9,4 C 9,4 C 7,8 C 79 % 0 lf 1027,3 hPa 0,0 l/m 0 min 0 min 0 W/m 14,6 km/h (3 Bft) 100,00 %
02.12.2015 22:44 9,4 C 9,4 C 7,8 C 79 % 0 lf 1027,3 hPa 0,0 l/m 0 min 0 min 0 W/m 14,6 km/h (3 Bft) 97,87 %
02.12.2015 22:46 9,4 C 10,0 C 7,8 C 79 % 0 lf 1027,3 hPa 0,0 l/m 0 min 0 min 0 W/m 18,8 km/h (3 Bft) 100,00 %
02.12.2015 22:48 9,4 C 10,0 C 7,8 C 79 % 0 lf 1027,3 hPa 0,0 l/m 0 min 0 min 0 W/m 10,5 km/h (2 Bft) 95,74 %
02.12.2015 22:50 9,4 C 9,4 C 7,8 C 79 % 0 lf 1027,3 hPa 0,0 l/m 0 min 0 min 0 W/m 8,4 km/h (2 Bft) 97,87 %
02.12.2015 22:52 9,4 C 10,0 C 7,8 C 79 % 0 lf 1027,4 hPa 0,0 l/m 0 min 0 min 0 W/m 12,6 km/h (3 Bft) 95,65 %
02.12.2015 22:54 9,4 C 10,0 C 7,8 C 79 % 0 lf 1027,4 hPa 0,0 l/m 0 min 0 min 0 W/m 14,6 km/h (3 Bft) 100,00 %
02.12.2015 22:56 9,4 C 10,0 C 8,3 C 79 % 0 lf 1027,4 hPa 0,0 l/m 0 min 0 min 0 W/m 16,7 km/h (3 Bft) 100,00 %
02.12.2015 22:58 9,4 C 10,0 C 8,3 C 79 % 0 lf 1027,4 hPa 0,0 l/m 0 min 0 min 0 W/m 14,6 km/h (3 Bft) 97,87 %
02.12.2015 23:00 9,4 C 10,0 C 8,3 C 79 % 0 lf 1027,5 hPa 0,0 l/m 0 min 0 min 0 W/m 14,6 km/h (3 Bft) 100,00 %
02.12.2015 23:02 9,4 C 10,0 C 8,3 C 79 % 0 lf 1027,5 hPa 0,0 l/m 0 min 0 min 0 W/m 14,6 km/h (3 Bft) 100,00 %
02.12.2015 23:04 9,4 C 10,0 C 7,8 C 79 % 0 lf 1027,4 hPa 0,0 l/m 0 min 0 min 0 W/m 16,7 km/h (3 Bft) 100,00 %
02.12.2015 23:06 9,4 C 10,0 C 7,8 C 79 % 0 lf 1027,4 hPa 0,0 l/m 0 min 0 min 0 W/m 16,7 km/h (3 Bft) 100,00 %
02.12.2015 23:08 9,5 C 10,0 C 8,3 C 79 % 0 lf 1027,4 hPa 0,0 l/m 0 min 0 min 0 W/m 12,6 km/h (3 Bft) 95,74 %
02.12.2015 23:10 9,5 C 10,0 C 7,8 C 79 % 0 lf 1027,4 hPa 0,0 l/m 0 min 0 min 0 W/m 8,4 km/h (2 Bft) 97,87 %
02.12.2015 23:12 9,5 C 10,0 C 7,8 C 79 % 0 lf 1027,5 hPa 0,0 l/m 0 min 0 min 0 W/m 12,6 km/h (3 Bft) 97,87 %
02.12.2015 23:14 9,5 C 9,4 C 7,8 C 79 % 0 lf 1027,5 hPa 0,0 l/m 0 min 0 min 0 W/m 12,6 km/h (3 Bft) 100,00 %
02.12.2015 23:16 9,5 C 9,4 C 7,8 C 79 % 0 lf 1027,5 hPa 0,0 l/m 0 min 0 min 0 W/m 10,5 km/h (2 Bft) 97,83 %
02.12.2015 23:18 9,5 C 9,4 C 7,8 C 79 % 0 lf 1027,5 hPa 0,0 l/m 0 min 0 min 0 W/m 14,6 km/h (3 Bft) 97,87 %
02.12.2015 23:20 9,5 C 9,4 C 7,8 C 79 % 0 lf 1027,4 hPa 0,0 l/m 0 min 0 min 0 W/m 14,6 km/h (3 Bft) 95,74 %
02.12.2015 23:22 9,5 C 10,0 C 7,8 C 79 % 0 lf 1027,4 hPa 0,0 l/m 0 min 0 min 0 W/m 18,8 km/h (3 Bft) 95,74 %
02.12.2015 23:24 9,5 C 9,4 C 7,8 C 79 % 0 lf 1027,5 hPa 0,0 l/m 0 min 0 min 0 W/m 14,6 km/h (3 Bft) 97,87 %
02.12.2015 23:26 9,5 C 9,4 C 7,8 C 79 % 0 lf 1027,4 hPa 0,0 l/m 0 min 0 min 0 W/m 12,6 km/h (3 Bft) 93,62 %
02.12.2015 23:28 9,5 C 9,4 C 7,8 C 79 % 0 lf 1027,5 hPa 0,0 l/m 0 min 0 min 0 W/m 12,6 km/h (3 Bft) 97,83 %
02.12.2015 23:30 9,5 C 9,4 C 7,8 C 79 % 0 lf 1027,5 hPa 0,0 l/m 0 min 0 min 0 W/m 14,6 km/h (3 Bft) 95,74 %
02.12.2015 23:32 9,5 C 9,4 C 7,8 C 79 % 0 lf 1027,4 hPa 0,0 l/m 0 min 0 min 0 W/m 12,6 km/h (3 Bft) 97,92 %
02.12.2015 23:34 9,5 C 9,4 C 7,8 C 79 % 0 lf 1027,4 hPa 0,0 l/m 0 min 0 min 0 W/m 16,7 km/h (3 Bft) 93,62 %
02.12.2015 23:36 9,5 C 9,4 C 8,3 C 79 % 0 lf 1027,4 hPa 0,0 l/m 0 min 0 min 0 W/m 16,7 km/h (3 Bft) 95,74 %
02.12.2015 23:38 9,5 C 9,4 C 7,8 C 79 % 0 lf 1027,4 hPa 0,0 l/m 0 min 0 min 0 W/m 12,6 km/h (3 Bft) 93,62 %
02.12.2015 23:40 9,5 C 9,4 C 7,8 C 79 % 0 lf 1027,4 hPa 0,0 l/m 0 min 0 min 0 W/m 14,6 km/h (3 Bft) 95,65 %
02.12.2015 23:42 9,5 C 9,4 C 7,8 C 79 % 0 lf 1027,4 hPa 0,0 l/m 0 min 0 min 0 W/m 16,7 km/h (3 Bft) 95,74 %
02.12.2015 23:44 9,5 C 9,4 C 7,8 C 79 % 0 lf 1027,4 hPa 0,0 l/m 0 min 0 min 0 W/m 16,7 km/h (3 Bft) 91,49 %
02.12.2015 23:46 9,5 C 9,4 C 7,8 C 79 % 0 lf 1027,4 hPa 0,0 l/m 0 min 0 min 0 W/m 16,7 km/h (3 Bft) 91,49 %
02.12.2015 23:48 9,5 C 9,4 C 7,8 C 79 % 0 lf 1027,4 hPa 0,0 l/m 0 min 0 min 0 W/m 16,7 km/h (3 Bft) 93,62 %
02.12.2015 23:50 9,5 C 9,4 C 7,8 C 79 % 0 lf 1027,4 hPa 0,0 l/m 0 min 0 min 0 W/m 20,9 km/h (4 Bft) 93,48 %
02.12.2015 23:52 9,5 C 9,4 C 7,8 C 79 % 0 lf 1027,4 hPa 0,0 l/m 0 min 0 min 0 W/m 18,8 km/h (3 Bft) 95,74 %
02.12.2015 23:54 9,5 C 9,4 C 7,8 C 79 % 0 lf 1027,4 hPa 0,0 l/m 0 min 0 min 0 W/m 14,6 km/h (3 Bft) 93,62 %
02.12.2015 23:56 9,5 C 9,4 C 7,8 C 79 % 0 lf 1027,4 hPa 0,0 l/m 0 min 0 min 0 W/m 14,6 km/h (3 Bft) 87,23 %
02.12.2015 23:58 9,5 C 9,4 C 7,8 C 79 % 0 lf 1027,4 hPa 0,0 l/m 0 min 0 min 0 W/m 18,8 km/h (3 Bft) 93,62 %
_ Min-Zeit 19:38 19:26 18:44 14:32 00:00 00:06 - - - - 03:18 06:42
Minimum _ 8,3 C 7,8 C 6,7 C 75 % 0 lf 1025,4 hPa - - - - 8,4 km/h (2 Bft) 85,11 %
_ Max-Zeit 14:42 13:58 13:40 00:00 00:00 23:00 00:00 13:52 04:52 14:04 01:14 00:02
Maximum _ 11,6 C 13,3 C 10,6 C 93 % 0 lf 1027,5 hPa 0,0 l/m 2 min 2 min 148 W/m 35,6 km/h
W-SW (5 Bft)
100,00 %
Durchschnitt _ 10,3 C 10,5 C 8,8 C 82 % 0 lf 1026,5 hPa #0,0 l/m #58 min. #2 min. 56 W/m 17,5 km/h (3 Bft) 95,99 %
© 2015 W. Hausmann